Observation data for Tarzan on 11/19/2019      Previous  Date  Next       Current Mesonet Observations  Soil Data  Daily Summary Page  Observations in Plain Language
KTA1 190600Z 02007KT 10/01 A2996 RMK A01 T00950014  RH  057%=      5-min Rain = 0
KTA1 190601Z 02007KT 10/01 A2996 RMK A01 T00950014  RH  057%=      5-min Rain = 0
KTA1 190602Z 03007KT 10/01 A2996 RMK A01 T00950014  RH  057%=      5-min Rain = 0
KTA1 190603Z 03007KT 10/01 A2996 RMK A01 T00950014  RH  057%=      5-min Rain = 0
KTA1 190604Z 03007KT 10/01 A2996 RMK A01 T00950014  RH  057%=      5-min Rain = 0
KTA1 190605Z 02007KT 10/01 A2996 RMK A01 T00950014  RH  057%=      5-min Rain = 0
KTA1 190606Z 02007KT 10/01 A2996 RMK A01 T00960014  RH  057%=      5-min Rain = 0
KTA1 190607Z 02007KT 10/01 A2996 RMK A01 T00960014  RH  057%=      5-min Rain = 0
KTA1 190608Z 02007KT 10/01 A2996 RMK A01 T00970014  RH  057%=      5-min Rain = 0
KTA1 190609Z 03006KT 10/01 A2996 RMK A01 T00970014  RH  056%=      5-min Rain = 0
KTA1 190610Z 03006KT 10/01 A2996 RMK A01 T00980014  RH  056%=      5-min Rain = 0
KTA1 190611Z 03006KT 10/01 A2996 RMK A01 T00980014  RH  056%=      5-min Rain = 0
KTA1 190612Z 03006KT 10/01 A2996 RMK A01 T00980014  RH  056%=      5-min Rain = 0
KTA1 190613Z 04005KT 10/01 A2996 RMK A01 T00980014  RH  056%=      5-min Rain = 0
KTA1 190614Z 04004KT 10/01 A2996 RMK A01 T00980014  RH  056%=      5-min Rain = 0
KTA1 190615Z 11005G13KT 10/01 A2997 RMK A01 T00980014  RH  056%=      5-min Rain = 0
KTA1 190616Z 15011KT 10/01 A2997 RMK A01 T00970014  RH  056%=      5-min Rain = 0
KTA1 190617Z 12007KT 09/01 A2997 RMK A01 T00930014  RH  058%=      5-min Rain = 0
KTA1 190618Z 08005KT 09/01 A2997 RMK A01 T00920013  RH  058%=      5-min Rain = 0
KTA1 190619Z 13006KT 09/01 A2997 RMK A01 T00940014  RH  057%=      5-min Rain = 0
KTA1 190620Z 14007KT 10/01 A2997 RMK A01 T00970014  RH  056%=      5-min Rain = 0
KTA1 190621Z 16005KT 10/01 A2997 RMK A01 T00970014  RH  056%=      5-min Rain = 0
KTA1 190622Z 15005KT 10/01 A2997 RMK A01 T00970014  RH  056%=      5-min Rain = 0
KTA1 190623Z 14006KT 10/01 A2997 RMK A01 T00960014  RH  056%=      5-min Rain = 0
KTA1 190624Z 13005KT 10/01 A2997 RMK A01 T00960013  RH  057%=      5-min Rain = 0
KTA1 190625Z 13004KT 10/01 A2997 RMK A01 T00950013  RH  056%=      5-min Rain = 0
KTA1 190626Z 15005KT 10/01 A2997 RMK A01 T00960013  RH  056%=      5-min Rain = 0
KTA1 190627Z 16006KT 10/01 A2997 RMK A01 T00960014  RH  057%=      5-min Rain = 0
KTA1 190628Z 13004KT 10/01 A2997 RMK A01 T00950014  RH  057%=      5-min Rain = 0
KTA1 190629Z 13004KT 10/01 A2996 RMK A01 T00950014  RH  057%=      5-min Rain = 0
KTA1 190630Z 15004KT 10/01 A2997 RMK A01 T00950014  RH  057%=      5-min Rain = 0
KTA1 190631Z 16006KT 09/01 A2997 RMK A01 T00940014  RH  057%=      5-min Rain = 0
KTA1 190632Z 15006KT 09/01 A2997 RMK A01 T00930014  RH  058%=      5-min Rain = 0
KTA1 190633Z 10004KT 09/01 A2996 RMK A01 T00920014  RH  058%=      5-min Rain = 0
KTA1 190634Z 09003KT 09/01 A2996 RMK A01 T00920014  RH  058%=      5-min Rain = 0
KTA1 190635Z 10003KT 09/01 A2996 RMK A01 T00920013  RH  058%=      5-min Rain = 0
KTA1 190636Z 11003KT 09/01 A2997 RMK A01 T00930013  RH  058%=      5-min Rain = 0
KTA1 190637Z 14004KT 09/01 A2997 RMK A01 T00930014  RH  058%=      5-min Rain = 0
KTA1 190638Z 15004KT 09/01 A2997 RMK A01 T00920014  RH  058%=      5-min Rain = 0
KTA1 190639Z 15004KT 09/01 A2997 RMK A01 T00900014  RH  059%=      5-min Rain = 0
KTA1 190640Z 14003KT 09/01 A2997 RMK A01 T00900014  RH  059%=      5-min Rain = 0
KTA1 190641Z 14003KT 09/01 A2997 RMK A01 T00900014  RH  059%=      5-min Rain = 0
KTA1 190642Z 15002KT 09/01 A2997 RMK A01 T00890014  RH  059%=      5-min Rain = 0
KTA1 190643Z 16003KT 09/01 A2997 RMK A01 T00890014  RH  059%=      5-min Rain = 0
KTA1 190644Z 16002KT 09/01 A2997 RMK A01 T00880014  RH  059%=      5-min Rain = 0
KTA1 190645Z 16001KT 09/01 A2997 RMK A01 T00890014  RH  060%=      5-min Rain = 0
KTA1 190646Z 16002KT 09/01 A2997 RMK A01 T00880014  RH  060%=      5-min Rain = 0
KTA1 190647Z 17003KT 09/01 A2997 RMK A01 T00880014  RH  060%=      5-min Rain = 0
KTA1 190648Z 17003KT 09/01 A2997 RMK A01 T00870014  RH  060%=      5-min Rain = 0
KTA1 190649Z 16003KT 09/01 A2997 RMK A01 T00860013  RH  060%=      5-min Rain = 0
KTA1 190650Z 15002KT 09/01 A2997 RMK A01 T00850013  RH  061%=      5-min Rain = 0
KTA1 190651Z 15002KT 09/01 A2997 RMK A01 T00850014  RH  061%=      5-min Rain = 0
KTA1 190652Z 15001KT 09/01 A2997 RMK A01 T00870014  RH  060%=      5-min Rain = 0
KTA1 190653Z 15002KT 09/01 A2997 RMK A01 T00880014  RH  060%=      5-min Rain = 0
KTA1 190654Z 16002KT 09/01 A2997 RMK A01 T00880014  RH  060%=      5-min Rain = 0
KTA1 190655Z 17001KT 09/01 A2997 RMK A01 T00880014  RH  060%=      5-min Rain = 0
KTA1 190656Z 21000KT 09/01 A2997 RMK A01 T00870013  RH  060%=      5-min Rain = 0
KTA1 190657Z 26000KT 09/01 A2996 RMK A01 T00850013  RH  061%=      5-min Rain = 0
KTA1 190658Z 00000KT 08/01 A2996 RMK A01 T00840014  RH  061%=      5-min Rain = 0
KTA1 190659Z 00000KT 08/01 A2996 RMK A01 T00830014  RH  062%=      5-min Rain = 0
KTA1 190700Z 00000KT 08/02 A2997 RMK A01 T00820015  RH  062%=      5-min Rain = 0
KTA1 190701Z 27002KT 08/02 A2997 RMK A01 T00810015  RH  063%=      5-min Rain = 0
KTA1 190702Z 26003KT 08/02 A2997 RMK A01 T00810015  RH  063%=      5-min Rain = 0
KTA1 190703Z 26002KT 08/01 A2997 RMK A01 T00790014  RH  064%=      5-min Rain = 0
KTA1 190704Z 26001KT 08/01 A2997 RMK A01 T00780014  RH  064%=      5-min Rain = 0
KTA1 190705Z 24001KT 08/01 A2997 RMK A01 T00780014  RH  064%=      5-min Rain = 0
KTA1 190706Z 23003KT 08/01 A2997 RMK A01 T00770014  RH  064%=      5-min Rain = 0
KTA1 190707Z 24003KT 08/01 A2997 RMK A01 T00760014  RH  065%=      5-min Rain = 0
KTA1 190708Z 23004KT 07/01 A2997 RMK A01 T00740014  RH  066%=      5-min Rain = 0
KTA1 190709Z 23005KT 07/01 A2998 RMK A01 T00730014  RH  066%=      5-min Rain = 0
KTA1 190710Z 23006KT 07/01 A2998 RMK A01 T00710013  RH  067%=      5-min Rain = 0
KTA1 190711Z 22007KT 07/01 A2998 RMK A01 T00690013  RH  067%=      5-min Rain = 0
KTA1 190712Z 22007KT 07/01 A2998 RMK A01 T00690013  RH  068%=      5-min Rain = 0
KTA1 190713Z 23006KT 07/01 A2998 RMK A01 T00680013  RH  068%=      5-min Rain = 0
KTA1 190714Z 24005KT 07/01 A2998 RMK A01 T00680013  RH  068%=      5-min Rain = 0
KTA1 190715Z 24005KT 07/01 A2998 RMK A01 T00690013  RH  068%=      5-min Rain = 0
KTA1 190716Z 25005KT 07/01 A2998 RMK A01 T00680012  RH  068%=      5-min Rain = 0
KTA1 190717Z 25004KT 07/01 A2998 RMK A01 T00680012  RH  067%=      5-min Rain = 0
KTA1 190718Z 25005KT 07/01 A2998 RMK A01 T00680012  RH  068%=      5-min Rain = 0
KTA1 190719Z 24005KT 07/01 A2998 RMK A01 T00680012  RH  068%=      5-min Rain = 0
KTA1 190720Z 24005KT 07/01 A2998 RMK A01 T00670012  RH  068%=      5-min Rain = 0
KTA1 190721Z 24004KT 07/01 A2998 RMK A01 T00670013  RH  068%=      5-min Rain = 0
KTA1 190722Z 24004KT 07/01 A2997 RMK A01 T00670013  RH  068%=      5-min Rain = 0
KTA1 190723Z 24004KT 07/01 A2997 RMK A01 T00670012  RH  068%=      5-min Rain = 0
KTA1 190724Z 23004KT 07/01 A2998 RMK A01 T00670012  RH  068%=      5-min Rain = 0
KTA1 190725Z 24003KT 07/01 A2998 RMK A01 T00670013  RH  068%=      5-min Rain = 0
KTA1 190726Z 24002KT 07/01 A2998 RMK A01 T00660012  RH  068%=      5-min Rain = 0
KTA1 190727Z 24002KT 07/01 A2998 RMK A01 T00660012  RH  068%=      5-min Rain = 0
KTA1 190728Z 23002KT 07/01 A2998 RMK A01 T00660012  RH  069%=      5-min Rain = 0
KTA1 190729Z 23002KT 07/01 A2997 RMK A01 T00660012  RH  069%=      5-min Rain = 0
KTA1 190730Z 23002KT 07/01 A2997 RMK A01 T00660012  RH  069%=      5-min Rain = 0
KTA1 190731Z 24002KT 07/01 A2997 RMK A01 T00670013  RH  068%=      5-min Rain = 0
KTA1 190732Z 25002KT 07/01 A2997 RMK A01 T00670012  RH  068%=      5-min Rain = 0
KTA1 190733Z 26001KT 07/01 A2997 RMK A01 T00680013  RH  068%=      5-min Rain = 0
KTA1 190734Z 27002KT 07/01 A2997 RMK A01 T00680013  RH  068%=      5-min Rain = 0
KTA1 190735Z 27001KT 07/01 A2997 RMK A01 T00680012  RH  068%=      5-min Rain = 0
KTA1 190736Z 27001KT 07/01 A2997 RMK A01 T00670013  RH  068%=      5-min Rain = 0
KTA1 190737Z 27001KT 07/01 A2997 RMK A01 T00670013  RH  068%=      5-min Rain = 0
KTA1 190738Z 27001KT 07/01 A2997 RMK A01 T00660013  RH  069%=      5-min Rain = 0
KTA1 190739Z 27001KT 07/01 A2997 RMK A01 T00660013  RH  069%=      5-min Rain = 0
KTA1 190740Z 27001KT 07/01 A2997 RMK A01 T00660012  RH  068%=      5-min Rain = 0
KTA1 190741Z 27002KT 07/01 A2997 RMK A01 T00660012  RH  068%=      5-min Rain = 0
KTA1 190742Z 27002KT 07/01 A2997 RMK A01 T00680013  RH  068%=      5-min Rain = 0
KTA1 190743Z 27002KT 07/01 A2997 RMK A01 T00690013  RH  068%=      5-min Rain = 0
KTA1 190744Z 27002KT 07/01 A2997 RMK A01 T00700013  RH  067%=      5-min Rain = 0
KTA1 190745Z 27002KT 07/01 A2997 RMK A01 T00710013  RH  067%=      5-min Rain = 0
KTA1 190746Z 27002KT 07/01 A2997 RMK A01 T00710013  RH  067%=      5-min Rain = 0
KTA1 190747Z 27002KT 07/01 A2997 RMK A01 T00720013  RH  066%=      5-min Rain = 0
KTA1 190748Z 27002KT 07/01 A2997 RMK A01 T00720014  RH  067%=      5-min Rain = 0
KTA1 190749Z 26003KT 07/01 A2997 RMK A01 T00720014  RH  067%=      5-min Rain = 0
KTA1 190750Z 25003KT 07/01 A2997 RMK A01 T00700013  RH  067%=      5-min Rain = 0
KTA1 190751Z 23003KT 07/01 A2997 RMK A01 T00690012  RH  067%=      5-min Rain = 0
KTA1 190752Z 23003KT 07/01 A2997 RMK A01 T00670012  RH  068%=      5-min Rain = 0
KTA1 190753Z 23003KT 07/01 A2997 RMK A01 T00650012  RH  069%=      5-min Rain = 0
KTA1 190754Z 24003KT 06/01 A2997 RMK A01 T00640012  RH  070%=      5-min Rain = 0
KTA1 190755Z 25003KT 06/01 A2997 RMK A01 T00630012  RH  070%=      5-min Rain = 0
KTA1 190756Z 25003KT 06/01 A2997 RMK A01 T00620012  RH  070%=      5-min Rain = 0
KTA1 190757Z 26003KT 06/01 A2997 RMK A01 T00620013  RH  071%=      5-min Rain = 0
KTA1 190758Z 26003KT 06/01 A2997 RMK A01 T00610012  RH  071%=      5-min Rain = 0
KTA1 190759Z 25003KT 06/01 A2997 RMK A01 T00610013  RH  071%=      5-min Rain = 0
KTA1 190800Z 25003KT 06/01 A2997 RMK A01 T00600012  RH  071%=      5-min Rain = 0
KTA1 190801Z 25003KT 06/01 A2997 RMK A01 T00600012  RH  071%=      5-min Rain = 0
KTA1 190802Z 26003KT 06/01 A2997 RMK A01 T00600012  RH  071%=      5-min Rain = 0
KTA1 190803Z 26003KT 06/01 A2997 RMK A01 T00600012  RH  071%=      5-min Rain = 0
KTA1 190804Z 26003KT 06/01 A2997 RMK A01 T00610013  RH  071%=      5-min Rain = 0
KTA1 190805Z 26002KT 06/01 A2997 RMK A01 T00620014  RH  071%=      5-min Rain = 0
KTA1 190806Z 26002KT 06/01 A2997 RMK A01 T00630014  RH  071%=      5-min Rain = 0
KTA1 190807Z 26002KT 06/01 A2997 RMK A01 T00630014  RH  071%=      5-min Rain = 0
KTA1 190808Z 26002KT 06/01 A2997 RMK A01 T00630014  RH  071%=      5-min Rain = 0
KTA1 190809Z 26002KT 06/01 A2997 RMK A01 T00630014  RH  071%=      5-min Rain = 0
KTA1 190810Z 27002KT 06/01 A2997 RMK A01 T00640014  RH  070%=      5-min Rain = 0
KTA1 190811Z 27002KT 06/01 A2997 RMK A01 T00630014  RH  070%=      5-min Rain = 0
KTA1 190812Z 27002KT 06/01 A2998 RMK A01 T00630013  RH  070%=      5-min Rain = 0
KTA1 190813Z 27002KT 06/01 A2998 RMK A01 T00630013  RH  070%=      5-min Rain = 0
KTA1 190814Z 27002KT 06/01 A2998 RMK A01 T00640013  RH  070%=      5-min Rain = 0
KTA1 190815Z 27002KT 07/01 A2998 RMK A01 T00650013  RH  070%=      5-min Rain = 0
KTA1 190816Z 27002KT 07/01 A2998 RMK A01 T00650013  RH  069%=      5-min Rain = 0
KTA1 190817Z 28003KT 07/01 A2998 RMK A01 T00650013  RH  069%=      5-min Rain = 0
KTA1 190818Z 29003KT 07/01 A2997 RMK A01 T00650014  RH  070%=      5-min Rain = 0
KTA1 190819Z 30004KT 06/01 A2997 RMK A01 T00640013  RH  070%=      5-min Rain = 0
KTA1 190820Z 31004KT 06/01 A2997 RMK A01 T00620013  RH  071%=      5-min Rain = 0
KTA1 190821Z 31003KT 06/01 A2997 RMK A01 T00610013  RH  071%=      5-min Rain = 0
KTA1 190822Z 31003KT 06/01 A2997 RMK A01 T00610014  RH  072%=      5-min Rain = 0
KTA1 190823Z 31003KT 06/01 A2997 RMK A01 T00610013  RH  072%=      5-min Rain = 0
KTA1 190824Z 31002KT 06/01 A2997 RMK A01 T00590012  RH  072%=      5-min Rain = 0
KTA1 190825Z 31002KT 06/01 A2997 RMK A01 T00580012  RH  072%=      5-min Rain = 0
KTA1 190826Z 31002KT 06/01 A2997 RMK A01 T00580012  RH  072%=      5-min Rain = 0
KTA1 190827Z 32003KT 06/01 A2997 RMK A01 T00570012  RH  073%=      5-min Rain = 0
KTA1 190828Z 33003KT 06/01 A2997 RMK A01 T00570012  RH  073%=      5-min Rain = 0
KTA1 190829Z 33003KT 06/01 A2997 RMK A01 T00560012  RH  073%=      5-min Rain = 0
KTA1 190830Z 33003KT 06/01 A2997 RMK A01 T00570013  RH  073%=      5-min Rain = 0
KTA1 190831Z 33003KT 06/01 A2997 RMK A01 T00570013  RH  073%=      5-min Rain = 0
KTA1 190832Z 33003KT 06/01 A2997 RMK A01 T00570013  RH  073%=      5-min Rain = 0
KTA1 190833Z 32003KT 06/01 A2997 RMK A01 T00560013  RH  073%=      5-min Rain = 0
KTA1 190834Z 32003KT 06/01 A2997 RMK A01 T00570013  RH  073%=      5-min Rain = 0
KTA1 190835Z 32003KT 06/01 A2997 RMK A01 T00570013  RH  073%=      5-min Rain = 0
KTA1 190836Z 32003KT 06/01 A2997 RMK A01 T00570013  RH  073%=      5-min Rain = 0
KTA1 190837Z 32003KT 06/01 A2997 RMK A01 T00570013  RH  073%=      5-min Rain = 0
KTA1 190838Z 32003KT 06/01 A2997 RMK A01 T00570013  RH  073%=      5-min Rain = 0
KTA1 190839Z 32003KT 06/01 A2997 RMK A01 T00570013  RH  073%=      5-min Rain = 0
KTA1 190840Z 32003KT 06/01 A2997 RMK A01 T00580013  RH  073%=      5-min Rain = 0
KTA1 190841Z 33003KT 06/01 A2997 RMK A01 T00580014  RH  073%=      5-min Rain = 0
KTA1 190842Z 33003KT 06/01 A2997 RMK A01 T00580014  RH  074%=      5-min Rain = 0
KTA1 190843Z 33003KT 06/01 A2997 RMK A01 T00580014  RH  074%=      5-min Rain = 0
KTA1 190844Z 33003KT 06/02 A2997 RMK A01 T00580015  RH  074%=      5-min Rain = 0
KTA1 190845Z 33004KT 06/02 A2997 RMK A01 T00580015  RH  074%=      5-min Rain = 0
KTA1 190846Z 33004KT 06/02 A2997 RMK A01 T00580015  RH  074%=      5-min Rain = 0
KTA1 190847Z 33004KT 06/01 A2997 RMK A01 T00580014  RH  073%=      5-min Rain = 0
KTA1 190848Z 33004KT 06/01 A2997 RMK A01 T00590014  RH  073%=      5-min Rain = 0
KTA1 190849Z 33004KT 06/01 A2997 RMK A01 T00580014  RH  073%=      5-min Rain = 0
KTA1 190850Z 33004KT 06/01 A2997 RMK A01 T00580014  RH  073%=      5-min Rain = 0
KTA1 190851Z 33005KT 06/01 A2997 RMK A01 T00580014  RH  073%=      5-min Rain = 0
KTA1 190852Z 33004KT 06/02 A2997 RMK A01 T00590015  RH  073%=      5-min Rain = 0
KTA1 190853Z 33004KT 06/02 A2997 RMK A01 T00590015  RH  074%=      5-min Rain = 0
KTA1 190854Z 33005KT 06/02 A2997 RMK A01 T00590015  RH  073%=      5-min Rain = 0
KTA1 190855Z 33005KT 06/02 A2997 RMK A01 T00590016  RH  073%=      5-min Rain = 0
KTA1 190856Z 33005KT 06/02 A2997 RMK A01 T00590015  RH  073%=      5-min Rain = 0
KTA1 190857Z 33004KT 06/02 A2997 RMK A01 T00590015  RH  073%=      5-min Rain = 0
KTA1 190858Z 33004KT 06/02 A2997 RMK A01 T00590015  RH  073%=      5-min Rain = 0
KTA1 190859Z 33004KT 06/02 A2997 RMK A01 T00590015  RH  073%=      5-min Rain = 0
KTA1 190900Z 33004KT 06/02 A2997 RMK A01 T00590015  RH  073%=      5-min Rain = 0
KTA1 190901Z 33004KT 06/02 A2997 RMK A01 T00600015  RH  073%=      5-min Rain = 0
KTA1 190902Z 33004KT 06/02 A2997 RMK A01 T00600015  RH  073%=      5-min Rain = 0
KTA1 190903Z 34004KT 06/02 A2997 RMK A01 T00600015  RH  073%=      5-min Rain = 0
KTA1 190904Z 34004KT 06/02 A2997 RMK A01 T00600015  RH  073%=      5-min Rain = 0
KTA1 190905Z 35004KT 06/02 A2997 RMK A01 T00610015  RH  073%=      5-min Rain = 0
KTA1 190906Z 35004KT 06/02 A2997 RMK A01 T00600015  RH  073%=      5-min Rain = 0
KTA1 190907Z 35005KT 06/02 A2997 RMK A01 T00600015  RH  073%=      5-min Rain = 0
KTA1 190908Z 35005KT 06/02 A2997 RMK A01 T00600015  RH  073%=      5-min Rain = 0
KTA1 190909Z 35004KT 06/01 A2997 RMK A01 T00600014  RH  073%=      5-min Rain = 0
KTA1 190910Z 35004KT 06/01 A2997 RMK A01 T00600014  RH  073%=      5-min Rain = 0
KTA1 190911Z 35003KT 06/02 A2997 RMK A01 T00600015  RH  073%=      5-min Rain = 0
KTA1 190912Z 35003KT 06/02 A2997 RMK A01 T00590015  RH  073%=      5-min Rain = 0
KTA1 190913Z 35004KT 06/01 A2997 RMK A01 T00580014  RH  073%=      5-min Rain = 0
KTA1 190914Z 36004KT 06/01 A2997 RMK A01 T00580014  RH  073%=      5-min Rain = 0
KTA1 190915Z 00004KT 06/01 A2997 RMK A01 T00570014  RH  074%=      5-min Rain = 0
KTA1 190916Z 00004KT 06/02 A2997 RMK A01 T00570015  RH  074%=      5-min Rain = 0
KTA1 190917Z 00004KT 06/02 A2997 RMK A01 T00560015  RH  075%=      5-min Rain = 0
KTA1 190918Z 00004KT 06/02 A2997 RMK A01 T00560015  RH  075%=      5-min Rain = 0
KTA1 190919Z 00004KT 06/01 A2997 RMK A01 T00550014  RH  075%=      5-min Rain = 0
KTA1 190920Z 00004KT 06/01 A2996 RMK A01 T00550014  RH  075%=      5-min Rain = 0
KTA1 190921Z 01004KT 05/01 A2996 RMK A01 T00540014  RH  075%=      5-min Rain = 0
KTA1 190922Z 01004KT 05/01 A2996 RMK A01 T00530013  RH  076%=      5-min Rain = 0
KTA1 190923Z 01004KT 05/01 A2996 RMK A01 T00530014  RH  076%=      5-min Rain = 0
KTA1 190924Z 01004KT 05/01 A2996 RMK A01 T00520014  RH  076%=      5-min Rain = 0
KTA1 190925Z 01005KT 05/01 A2997 RMK A01 T00520014  RH  076%=      5-min Rain = 0
KTA1 190926Z 01004KT 05/01 A2997 RMK A01 T00510014  RH  077%=      5-min Rain = 0
KTA1 190927Z 01004KT 05/01 A2997 RMK A01 T00510014  RH  077%=      5-min Rain = 0
KTA1 190928Z 01004KT 05/01 A2997 RMK A01 T00500014  RH  077%=      5-min Rain = 0
KTA1 190929Z 01004KT 05/01 A2997 RMK A01 T00500014  RH  077%=      5-min Rain = 0
KTA1 190930Z 01002KT 05/01 A2997 RMK A01 T00500014  RH  078%=      5-min Rain = 0
KTA1 190931Z 01001KT 05/01 A2997 RMK A01 T00490014  RH  078%=      5-min Rain = 0
KTA1 190932Z 00001KT 05/01 A2997 RMK A01 T00480013  RH  078%=      5-min Rain = 0
KTA1 190933Z 00000KT 05/01 A2997 RMK A01 T00480013  RH  078%=      5-min Rain = 0
KTA1 190934Z 00000KT 05/01 A2997 RMK A01 T00480014  RH  078%=      5-min Rain = 0
KTA1 190935Z 00000KT 05/01 A2997 RMK A01 T00480014  RH  078%=      5-min Rain = 0
KTA1 190936Z 00000KT 05/01 A2997 RMK A01 T00480014  RH  078%=      5-min Rain = 0
KTA1 190937Z 00000KT 05/01 A2997 RMK A01 T00480014  RH  078%=      5-min Rain = 0
KTA1 190938Z 00000KT 05/01 A2997 RMK A01 T00480014  RH  079%=      5-min Rain = 0
KTA1 190939Z 00000KT 05/01 A2997 RMK A01 T00480014  RH  079%=      5-min Rain = 0
KTA1 190940Z 00000KT 05/01 A2997 RMK A01 T00480014  RH  079%=      5-min Rain = 0
KTA1 190941Z 00000KT 05/01 A2997 RMK A01 T00470014  RH  079%=      5-min Rain = 0
KTA1 190942Z 33001KT 05/02 A2997 RMK A01 T00480015  RH  079%=      5-min Rain = 0
KTA1 190943Z 29001KT 05/02 A2997 RMK A01 T00470015  RH  079%=      5-min Rain = 0
KTA1 190944Z 24001KT 05/01 A2997 RMK A01 T00470014  RH  079%=      5-min Rain = 0
KTA1 190945Z 23002KT 05/01 A2997 RMK A01 T00470014  RH  079%=      5-min Rain = 0
KTA1 190946Z 23002KT 05/01 A2997 RMK A01 T00470014  RH  079%=      5-min Rain = 0
KTA1 190947Z 23001KT 05/01 A2997 RMK A01 T00470014  RH  079%=      5-min Rain = 0
KTA1 190948Z 23001KT 05/01 A2997 RMK A01 T00470014  RH  079%=      5-min Rain = 0
KTA1 190949Z 25000KT 05/01 A2997 RMK A01 T00480014  RH  079%=      5-min Rain = 0
KTA1 190950Z 28001KT 05/01 A2997 RMK A01 T00480014  RH  079%=      5-min Rain = 0
KTA1 190951Z 28001KT 05/01 A2997 RMK A01 T00480014  RH  079%=      5-min Rain = 0
KTA1 190952Z 29001KT 05/02 A2997 RMK A01 T00480015  RH  079%=      5-min Rain = 0
KTA1 190953Z 29001KT 05/02 A2997 RMK A01 T00490015  RH  079%=      5-min Rain = 0
KTA1 190954Z 29001KT 05/02 A2997 RMK A01 T00500015  RH  078%=      5-min Rain = 0
KTA1 190955Z 28001KT 05/01 A2997 RMK A01 T00490014  RH  078%=      5-min Rain = 0
KTA1 190956Z 28001KT 05/01 A2997 RMK A01 T00480014  RH  078%=      5-min Rain = 0
KTA1 190957Z 28000KT 05/01 A2997 RMK A01 T00480014  RH  079%=      5-min Rain = 0
KTA1 190958Z 00000KT 05/01 A2997 RMK A01 T00470013  RH  079%=      5-min Rain = 0
KTA1 190959Z 00000KT 05/01 A2997 RMK A01 T00470013  RH  079%=      5-min Rain = 0
KTA1 191000Z 00000KT 05/01 A2997 RMK A01 T00460013  RH  079%=      5-min Rain = 0
KTA1 191001Z 00000KT 05/01 A2997 RMK A01 T00460014  RH  080%=      5-min Rain = 0
KTA1 191002Z 00000KT 05/01 A2997 RMK A01 T00460014  RH  080%=      5-min Rain = 0
KTA1 191003Z 00000KT 05/01 A2996 RMK A01 T00460014  RH  080%=      5-min Rain = 0
KTA1 191004Z 00000KT 05/01 A2996 RMK A01 T00460014  RH  080%=      5-min Rain = 0
KTA1 191005Z 00000KT 05/01 A2996 RMK A01 T00460014  RH  080%=      5-min Rain = 0
KTA1 191006Z 00000KT 05/01 A2996 RMK A01 T00460014  RH  080%=      5-min Rain = 0
KTA1 191007Z 33001KT 05/01 A2996 RMK A01 T00460014  RH  079%=      5-min Rain = 0
KTA1 191008Z 33001KT 05/01 A2996 RMK A01 T00470014  RH  079%=      5-min Rain = 0
KTA1 191009Z 33001KT 05/01 A2996 RMK A01 T00470014  RH  079%=      5-min Rain = 0
KTA1 191010Z 33000KT 05/01 A2996 RMK A01 T00470014  RH  080%=      5-min Rain = 0
KTA1 191011Z 00000KT 05/02 A2996 RMK A01 T00460015  RH  080%=      5-min Rain = 0
KTA1 191012Z 00000KT 05/01 A2996 RMK A01 T00450014  RH  080%=      5-min Rain = 0
KTA1 191013Z 00000KT 05/01 A2996 RMK A01 T00450014  RH  080%=      5-min Rain = 0
KTA1 191014Z 00000KT 04/01 A2996 RMK A01 T00440013  RH  080%=      5-min Rain = 0
KTA1 191015Z 00000KT 04/01 A2996 RMK A01 T00440014  RH  080%=      5-min Rain = 0
KTA1 191016Z 02001KT 04/01 A2996 RMK A01 T00440014  RH  081%=      5-min Rain = 0
KTA1 191017Z 02002KT 05/02 A2996 RMK A01 T00450015  RH  081%=      5-min Rain = 0
KTA1 191018Z 02002KT 05/02 A2996 RMK A01 T00450015  RH  080%=      5-min Rain = 0
KTA1 191019Z 02002KT 05/01 A2996 RMK A01 T00460014  RH  080%=      5-min Rain = 0
KTA1 191020Z 02002KT 05/01 A2996 RMK A01 T00460014  RH  080%=      5-min Rain = 0
KTA1 191021Z 02002KT 05/01 A2996 RMK A01 T00470014  RH  079%=      5-min Rain = 0
KTA1 191022Z 02001KT 05/01 A2996 RMK A01 T00460014  RH  079%=      5-min Rain = 0
KTA1 191023Z 02000KT 05/01 A2996 RMK A01 T00460013  RH  079%=      5-min Rain = 0
KTA1 191024Z 00000KT 05/01 A2996 RMK A01 T00450013  RH  080%=      5-min Rain = 0
KTA1 191025Z 00000KT 05/01 A2996 RMK A01 T00450014  RH  080%=      5-min Rain = 0
KTA1 191026Z 00000KT 05/01 A2996 RMK A01 T00450014  RH  080%=      5-min Rain = 0
KTA1 191027Z 00000KT 05/01 A2996 RMK A01 T00450014  RH  080%=      5-min Rain = 0
KTA1 191028Z 00000KT 04/01 A2996 RMK A01 T00440014  RH  080%=      5-min Rain = 0
KTA1 191029Z 00000KT 04/01 A2996 RMK A01 T00440014  RH  080%=      5-min Rain = 0
KTA1 191030Z 02000KT 05/01 A2996 RMK A01 T00450014  RH  081%=      5-min Rain = 0
KTA1 191031Z 02001KT 05/02 A2996 RMK A01 T00450015  RH  081%=      5-min Rain = 0
KTA1 191032Z 21002KT 05/01 A2996 RMK A01 T00450013  RH  080%=      5-min Rain = 0
KTA1 191033Z 21003KT 04/01 A2996 RMK A01 T00430013  RH  081%=      5-min Rain = 0
KTA1 191034Z 21003KT 04/01 A2996 RMK A01 T00420013  RH  081%=      5-min Rain = 0
KTA1 191035Z 22003KT 04/01 A2996 RMK A01 T00410013  RH  082%=      5-min Rain = 0
KTA1 191036Z 22003KT 04/01 A2996 RMK A01 T00410013  RH  082%=      5-min Rain = 0
KTA1 191037Z 23003KT 04/01 A2996 RMK A01 T00420013  RH  082%=      5-min Rain = 0
KTA1 191038Z 24002KT 04/01 A2996 RMK A01 T00420014  RH  082%=      5-min Rain = 0
KTA1 191039Z 25002KT 04/01 A2996 RMK A01 T00430014  RH  081%=      5-min Rain = 0
KTA1 191040Z 25003KT 04/01 A2996 RMK A01 T00430013  RH  081%=      5-min Rain = 0
KTA1 191041Z 25003KT 04/01 A2996 RMK A01 T00420012  RH  081%=      5-min Rain = 0
KTA1 191042Z 25003KT 04/01 A2996 RMK A01 T00410010  RH  080%=      5-min Rain = 0
KTA1 191043Z 25003KT 04/01 A2996 RMK A01 T00390009  RH  081%=      5-min Rain = 0
KTA1 191044Z 25003KT 04/01 A2996 RMK A01 T00380009  RH  081%=      5-min Rain = 0
KTA1 191045Z 25003KT 04/01 A2996 RMK A01 T00370009  RH  082%=      5-min Rain = 0
KTA1 191046Z 25003KT 04/01 A2996 RMK A01 T00370009  RH  082%=      5-min Rain = 0
KTA1 191047Z 25003KT 04/01 A2996 RMK A01 T00360009  RH  082%=      5-min Rain = 0
KTA1 191048Z 26002KT 04/01 A2996 RMK A01 T00360009  RH  083%=      5-min Rain = 0
KTA1 191049Z 27003KT 04/01 A2996 RMK A01 T00360010  RH  083%=      5-min Rain = 0
KTA1 191050Z 27003KT 04/01 A2996 RMK A01 T00360009  RH  083%=      5-min Rain = 0
KTA1 191051Z 27003KT 04/01 A2996 RMK A01 T00370010  RH  083%=      5-min Rain = 0
KTA1 191052Z 27003KT 04/01 A2996 RMK A01 T00370011  RH  083%=      5-min Rain = 0
KTA1 191053Z 27003KT 04/01 A2996 RMK A01 T00380011  RH  083%=      5-min Rain = 0
KTA1 191054Z 27003KT 04/01 A2996 RMK A01 T00380011  RH  083%=      5-min Rain = 0
KTA1 191055Z 28003KT 04/01 A2996 RMK A01 T00380011  RH  083%=      5-min Rain = 0
KTA1 191056Z 29003KT 04/01 A2996 RMK A01 T00390012  RH  083%=      5-min Rain = 0
KTA1 191057Z 30003KT 04/01 A2996 RMK A01 T00390011  RH  082%=      5-min Rain = 0
KTA1 191058Z 30003KT 04/01 A2996 RMK A01 T00390011  RH  082%=      5-min Rain = 0
KTA1 191059Z 30003KT 04/01 A2996 RMK A01 T00390012  RH  082%=      5-min Rain = 0
KTA1 191100Z 30002KT 04/01 A2996 RMK A01 T00390012  RH  083%=      5-min Rain = 0
KTA1 191101Z 30002KT 04/01 A2996 RMK A01 T00390012  RH  083%=      5-min Rain = 0
KTA1 191102Z 29002KT 04/01 A2996 RMK A01 T00390011  RH  082%=      5-min Rain = 0
KTA1 191103Z 29002KT 04/01 A2996 RMK A01 T00390011  RH  082%=      5-min Rain = 0
KTA1 191104Z 29002KT 04/01 A2996 RMK A01 T00390011  RH  082%=      5-min Rain = 0
KTA1 191105Z 28002KT 04/01 A2996 RMK A01 T00380011  RH  083%=      5-min Rain = 0
KTA1 191106Z 28002KT 04/01 A2996 RMK A01 T00380011  RH  083%=      5-min Rain = 0
KTA1 191107Z 28003KT 04/01 A2996 RMK A01 T00380011  RH  083%=      5-min Rain = 0
KTA1 191108Z 28003KT 04/01 A2996 RMK A01 T00380011  RH  083%=      5-min Rain = 0
KTA1 191109Z 28002KT 04/01 A2996 RMK A01 T00380011  RH  083%=      5-min Rain = 0
KTA1 191110Z 28002KT 04/01 A2996 RMK A01 T00380011  RH  083%=      5-min Rain = 0
KTA1 191111Z 28002KT 04/01 A2996 RMK A01 T00370011  RH  083%=      5-min Rain = 0
KTA1 191112Z 28002KT 04/01 A2996 RMK A01 T00370010  RH  083%=      5-min Rain = 0
KTA1 191113Z 28003KT 04/01 A2996 RMK A01 T00370010  RH  083%=      5-min Rain = 0
KTA1 191114Z 28003KT 04/01 A2996 RMK A01 T00360010  RH  083%=      5-min Rain = 0
KTA1 191115Z 28003KT 04/01 A2996 RMK A01 T00370011  RH  083%=      5-min Rain = 0
KTA1 191116Z 28002KT 04/01 A2996 RMK A01 T00360011  RH  083%=      5-min Rain = 0
KTA1 191117Z 28002KT 04/01 A2996 RMK A01 T00360011  RH  083%=      5-min Rain = 0
KTA1 191118Z 28002KT 04/01 A2996 RMK A01 T00360011  RH  083%=      5-min Rain = 0
KTA1 191119Z 28002KT 04/01 A2996 RMK A01 T00370011  RH  083%=      5-min Rain = 0
KTA1 191120Z 28002KT 04/01 A2996 RMK A01 T00360010  RH  083%=      5-min Rain = 0
KTA1 191121Z 28001KT 04/01 A2996 RMK A01 T00360011  RH  083%=      5-min Rain = 0
KTA1 191122Z 28001KT 04/01 A2996 RMK A01 T00370011  RH  084%=      5-min Rain = 0
KTA1 191123Z 27001KT 04/01 A2996 RMK A01 T00370012  RH  084%=      5-min Rain = 0
KTA1 191124Z 26001KT 04/01 A2996 RMK A01 T00370011  RH  083%=      5-min Rain = 0
KTA1 191125Z 24002KT 04/01 A2996 RMK A01 T00370011  RH  083%=      5-min Rain = 0
KTA1 191126Z 22002KT 04/01 A2997 RMK A01 T00360011  RH  083%=      5-min Rain = 0
KTA1 191127Z 20002KT 04/01 A2997 RMK A01 T00350010  RH  084%=      5-min Rain = 0
KTA1 191128Z 20003KT 04/01 A2997 RMK A01 T00350010  RH  084%=      5-min Rain = 0
KTA1 191129Z 19002KT 03/01 A2997 RMK A01 T00340010  RH  084%=      5-min Rain = 0
KTA1 191130Z 19002KT 03/01 A2997 RMK A01 T00340010  RH  084%=      5-min Rain = 0
KTA1 191131Z 19002KT 03/01 A2997 RMK A01 T00340010  RH  085%=      5-min Rain = 0
KTA1 191132Z 19003KT 03/01 A2997 RMK A01 T00330010  RH  085%=      5-min Rain = 0
KTA1 191133Z 19003KT 03/01 A2997 RMK A01 T00340010  RH  085%=      5-min Rain = 0
KTA1 191134Z 18003KT 03/01 A2997 RMK A01 T00340011  RH  085%=      5-min Rain = 0
KTA1 191135Z 18003KT 03/01 A2997 RMK A01 T00340011  RH  085%=      5-min Rain = 0
KTA1 191136Z 19002KT 03/01 A2997 RMK A01 T00340011  RH  085%=      5-min Rain = 0
KTA1 191137Z 20003KT 03/01 A2997 RMK A01 T00340011  RH  085%=      5-min Rain = 0
KTA1 191138Z 20003KT 03/01 A2997 RMK A01 T00340011  RH  085%=      5-min Rain = 0
KTA1 191139Z 21003KT 04/01 A2997 RMK A01 T00350011  RH  085%=      5-min Rain = 0
KTA1 191140Z 21003KT 04/01 A2997 RMK A01 T00350011  RH  084%=      5-min Rain = 0
KTA1 191141Z 21003KT 04/01 A2997 RMK A01 T00350010  RH  084%=      5-min Rain = 0
KTA1 191142Z 21003KT 04/01 A2997 RMK A01 T00350011  RH  084%=      5-min Rain = 0
KTA1 191143Z 21003KT 04/01 A2997 RMK A01 T00350010  RH  084%=      5-min Rain = 0
KTA1 191144Z 21003KT 04/01 A2997 RMK A01 T00350010  RH  084%=      5-min Rain = 0
KTA1 191145Z 20003KT 04/01 A2997 RMK A01 T00350010  RH  084%=      5-min Rain = 0
KTA1 191146Z 20002KT 04/01 A2997 RMK A01 T00350011  RH  084%=      5-min Rain = 0
KTA1 191147Z 20002KT 04/01 A2997 RMK A01 T00350011  RH  084%=      5-min Rain = 0
KTA1 191148Z 19002KT 04/01 A2997 RMK A01 T00350010  RH  084%=      5-min Rain = 0
KTA1 191149Z 20002KT 04/01 A2997 RMK A01 T00350010  RH  084%=      5-min Rain = 0
KTA1 191150Z 21002KT 04/01 A2997 RMK A01 T00350010  RH  084%=      5-min Rain = 0
KTA1 191151Z 23002KT 03/01 A2997 RMK A01 T00340010  RH  084%=      5-min Rain = 0
KTA1 191152Z 25003KT 04/01 A2997 RMK A01 T00350010  RH  084%=      5-min Rain = 0
KTA1 191153Z 25003KT 03/01 A2997 RMK A01 T00340009  RH  084%=      5-min Rain = 0
KTA1 191154Z 25003KT 03/01 A2996 RMK A01 T00340009  RH  083%=      5-min Rain = 0
KTA1 191155Z 26003KT 04/01 A2996 RMK A01 T00350009  RH  083%=      5-min Rain = 0
KTA1 191156Z 26003KT 03/01 A2996 RMK A01 T00340009  RH  083%=      5-min Rain = 0
KTA1 191157Z 26003KT 03/01 A2996 RMK A01 T00340008  RH  083%=      5-min Rain = 0
KTA1 191158Z 26003KT 03/01 A2996 RMK A01 T00330008  RH  083%=      5-min Rain = 0
KTA1 191159Z 26003KT 03/01 A2996 RMK A01 T00330008  RH  084%=      5-min Rain = 0
KTA1 191200Z 26003KT 03/01 A2996 RMK A01 T00330008  RH  084%=      5-min Rain = 0
KTA1 191201Z 26003KT 03/01 A2996 RMK A01 T00330009  RH  084%=      5-min Rain = 0
KTA1 191202Z 25003KT 03/01 A2996 RMK A01 T00330009  RH  084%=      5-min Rain = 0
KTA1 191203Z 25002KT 03/01 A2997 RMK A01 T00330009  RH  084%=      5-min Rain = 0
KTA1 191204Z 24002KT 03/01 A2997 RMK A01 T00330009  RH  084%=      5-min Rain = 0
KTA1 191205Z 24002KT 03/01 A2997 RMK A01 T00330009  RH  084%=      5-min Rain = 0
KTA1 191206Z 24002KT 03/01 A2997 RMK A01 T00320008  RH  084%=      5-min Rain = 0
KTA1 191207Z 24002KT 03/01 A2997 RMK A01 T00320008  RH  085%=      5-min Rain = 0
KTA1 191208Z 24002KT 03/01 A2997 RMK A01 T00310008  RH  085%=      5-min Rain = 0
KTA1 191209Z 24002KT 03/01 A2996 RMK A01 T00310008  RH  085%=      5-min Rain = 0
KTA1 191210Z 25002KT 03/01 A2996 RMK A01 T00310009  RH  085%=      5-min Rain = 0
KTA1 191211Z 25003KT 03/01 A2996 RMK A01 T00300009  RH  086%=      5-min Rain = 0
KTA1 191212Z 25003KT 03/01 A2996 RMK A01 T00310009  RH  086%=      5-min Rain = 0
KTA1 191213Z 25002KT 03/01 A2996 RMK A01 T00310009  RH  085%=      5-min Rain = 0
KTA1 191214Z 25002KT 03/01 A2996 RMK A01 T00320009  RH  085%=      5-min Rain = 0
KTA1 191215Z 25002KT 03/01 A2996 RMK A01 T00320009  RH  085%=      5-min Rain = 0
KTA1 191216Z 24002KT 03/01 A2997 RMK A01 T00320009  RH  085%=      5-min Rain = 0
KTA1 191217Z 23002KT 03/01 A2997 RMK A01 T00320008  RH  085%=      5-min Rain = 0
KTA1 191218Z 21002KT 03/01 A2997 RMK A01 T00320009  RH  085%=      5-min Rain = 0
KTA1 191219Z 21002KT 03/01 A2997 RMK A01 T00320009  RH  085%=      5-min Rain = 0
KTA1 191220Z 22002KT 03/01 A2997 RMK A01 T00320008  RH  085%=      5-min Rain = 0
KTA1 191221Z 22002KT 03/01 A2997 RMK A01 T00320008  RH  085%=      5-min Rain = 0
KTA1 191222Z 22002KT 03/01 A2997 RMK A01 T00320008  RH  084%=      5-min Rain = 0
KTA1 191223Z 22002KT 03/01 A2997 RMK A01 T00320008  RH  084%=      5-min Rain = 0
KTA1 191224Z 22002KT 03/01 A2997 RMK A01 T00320008  RH  085%=      5-min Rain = 0
KTA1 191225Z 22002KT 03/01 A2997 RMK A01 T00320008  RH  085%=      5-min Rain = 0
KTA1 191226Z 21002KT 03/01 A2997 RMK A01 T00320009  RH  085%=      5-min Rain = 0
KTA1 191227Z 22003KT 03/01 A2997 RMK A01 T00320009  RH  085%=      5-min Rain = 0
KTA1 191228Z 22003KT 03/01 A2997 RMK A01 T00320009  RH  085%=      5-min Rain = 0
KTA1 191229Z 22003KT 03/01 A2997 RMK A01 T00320009  RH  085%=      5-min Rain = 0
KTA1 191230Z 22002KT 03/01 A2997 RMK A01 T00330009  RH  085%=      5-min Rain = 0
KTA1 191231Z 22002KT 03/01 A2997 RMK A01 T00340010  RH  084%=      5-min Rain = 0
KTA1 191232Z 22002KT 04/01 A2997 RMK A01 T00350009  RH  083%=      5-min Rain = 0
KTA1 191233Z 22002KT 04/01 A2997 RMK A01 T00360009  RH  083%=      5-min Rain = 0
KTA1 191234Z 22002KT 04/01 A2997 RMK A01 T00360009  RH  082%=      5-min Rain = 0
KTA1 191235Z 22002KT 04/01 A2997 RMK A01 T00360008  RH  082%=      5-min Rain = 0
KTA1 191236Z 23003KT 04/01 A2997 RMK A01 T00360008  RH  082%=      5-min Rain = 0
KTA1 191237Z 23003KT 04/01 A2997 RMK A01 T00360009  RH  082%=      5-min Rain = 0
KTA1 191238Z 23003KT 04/01 A2997 RMK A01 T00350008  RH  083%=      5-min Rain = 0
KTA1 191239Z 22003KT 04/01 A2997 RMK A01 T00350009  RH  083%=      5-min Rain = 0
KTA1 191240Z 20003KT 04/01 A2997 RMK A01 T00350008  RH  083%=      5-min Rain = 0
KTA1 191241Z 20003KT 03/01 A2997 RMK A01 T00340008  RH  083%=      5-min Rain = 0
KTA1 191242Z 20003KT 03/01 A2997 RMK A01 T00340009  RH  083%=      5-min Rain = 0
KTA1 191243Z 21003KT 03/01 A2997 RMK A01 T00340009  RH  084%=      5-min Rain = 0
KTA1 191244Z 22003KT 03/01 A2997 RMK A01 T00330008  RH  084%=      5-min Rain = 0
KTA1 191245Z 23003KT 03/01 A2997 RMK A01 T00330009  RH  084%=      5-min Rain = 0
KTA1 191246Z 23004KT 03/01 A2997 RMK A01 T00330009  RH  084%=      5-min Rain = 0
KTA1 191247Z 23004KT 03/01 A2997 RMK A01 T00330009  RH  084%=      5-min Rain = 0
KTA1 191248Z 23004KT 03/01 A2997 RMK A01 T00320008  RH  084%=      5-min Rain = 0
KTA1 191249Z 24004KT 03/01 A2997 RMK A01 T00320008  RH  084%=      5-min Rain = 0
KTA1 191250Z 24004KT 03/01 A2997 RMK A01 T00310008  RH  085%=      5-min Rain = 0
KTA1 191251Z 24004KT 03/01 A2997 RMK A01 T00310008  RH  085%=      5-min Rain = 0
KTA1 191252Z 24004KT 03/01 A2998 RMK A01 T00310007  RH  085%=      5-min Rain = 0
KTA1 191253Z 24004KT 03/01 A2998 RMK A01 T00300007  RH  085%=      5-min Rain = 0
KTA1 191254Z 24004KT 03/01 A2998 RMK A01 T00300007  RH  085%=      5-min Rain = 0
KTA1 191255Z 24004KT 03/01 A2998 RMK A01 T00300007  RH  085%=      5-min Rain = 0
KTA1 191256Z 23003KT 03/01 A2998 RMK A01 T00300007  RH  085%=      5-min Rain = 0
KTA1 191257Z 23003KT 03/01 A2998 RMK A01 T00290007  RH  085%=      5-min Rain = 0
KTA1 191258Z 22003KT 03/01 A2998 RMK A01 T00290007  RH  085%=      5-min Rain = 0
KTA1 191259Z 21003KT 03/01 A2998 RMK A01 T00280007  RH  086%=      5-min Rain = 0
KTA1 191300Z 21003KT 03/01 A2998 RMK A01 T00280007  RH  086%=      5-min Rain = 0
KTA1 191301Z 21003KT 03/01 A2998 RMK A01 T00280008  RH  087%=      5-min Rain = 0
KTA1 191302Z 21002KT 03/01 A2998 RMK A01 T00290008  RH  087%=      5-min Rain = 0
KTA1 191303Z 21002KT 03/01 A2998 RMK A01 T00290008  RH  086%=      5-min Rain = 0
KTA1 191304Z 21002KT 03/01 A2997 RMK A01 T00290008  RH  087%=      5-min Rain = 0
KTA1 191305Z 21002KT 03/01 A2997 RMK A01 T00280008  RH  087%=      5-min Rain = 0
KTA1 191306Z 21002KT 03/01 A2998 RMK A01 T00280008  RH  087%=      5-min Rain = 0
KTA1 191307Z 20002KT 03/01 A2998 RMK A01 T00280008  RH  087%=      5-min Rain = 0
KTA1 191308Z 19001KT 03/01 A2998 RMK A01 T00280008  RH  087%=      5-min Rain = 0
KTA1 191309Z 19001KT 03/01 A2998 RMK A01 T00280009  RH  087%=      5-min Rain = 0
KTA1 191310Z 21002KT 03/01 A2998 RMK A01 T00290009  RH  087%=      5-min Rain = 0
KTA1 191311Z 21002KT 03/01 A2998 RMK A01 T00280008  RH  087%=      5-min Rain = 0
KTA1 191312Z 21002KT 03/01 A2998 RMK A01 T00290009  RH  087%=      5-min Rain = 0
KTA1 191313Z 21002KT 03/01 A2998 RMK A01 T00290009  RH  086%=      5-min Rain = 0
KTA1 191314Z 21002KT 03/01 A2998 RMK A01 T00300009  RH  086%=      5-min Rain = 0
KTA1 191315Z 21002KT 03/01 A2998 RMK A01 T00290009  RH  086%=      5-min Rain = 0
KTA1 191316Z 21003KT 03/01 A2998 RMK A01 T00300009  RH  086%=      5-min Rain = 0
KTA1 191317Z 21003KT 03/01 A2998 RMK A01 T00300009  RH  086%=      5-min Rain = 0
KTA1 191318Z 21003KT 03/01 A2998 RMK A01 T00300009  RH  086%=      5-min Rain = 0
KTA1 191319Z 21003KT 03/01 A2998 RMK A01 T00310009  RH  085%=      5-min Rain = 0
KTA1 191320Z 21003KT 03/01 A2998 RMK A01 T00310009  RH  085%=      5-min Rain = 0
KTA1 191321Z 22003KT 03/01 A2998 RMK A01 T00310009  RH  085%=      5-min Rain = 0
KTA1 191322Z 22003KT 03/01 A2998 RMK A01 T00310008  RH  085%=      5-min Rain = 0
KTA1 191323Z 22003KT 03/01 A2998 RMK A01 T00310009  RH  085%=      5-min Rain = 0
KTA1 191324Z 22003KT 03/01 A2998 RMK A01 T00310009  RH  085%=      5-min Rain = 0
KTA1 191325Z 22003KT 03/01 A2998 RMK A01 T00310008  RH  085%=      5-min Rain = 0
KTA1 191326Z 22003KT 03/01 A2998 RMK A01 T00300008  RH  085%=      5-min Rain = 0
KTA1 191327Z 22004KT 03/01 A2998 RMK A01 T00300008  RH  085%=      5-min Rain = 0
KTA1 191328Z 22004KT 03/01 A2998 RMK A01 T00300008  RH  086%=      5-min Rain = 0
KTA1 191329Z 22004KT 03/01 A2998 RMK A01 T00300009  RH  086%=      5-min Rain = 0
KTA1 191330Z 22004KT 03/01 A2998 RMK A01 T00290008  RH  086%=      5-min Rain = 0
KTA1 191331Z 22004KT 03/01 A2998 RMK A01 T00300009  RH  086%=      5-min Rain = 0
KTA1 191332Z 21004KT 03/01 A2998 RMK A01 T00290008  RH  086%=      5-min Rain = 0
KTA1 191333Z 21004KT 03/01 A2998 RMK A01 T00300008  RH  086%=      5-min Rain = 0
KTA1 191334Z 21004KT 03/01 A2998 RMK A01 T00300008  RH  086%=      5-min Rain = 0
KTA1 191335Z 21003KT 03/01 A2998 RMK A01 T00300009  RH  086%=      5-min Rain = 0
KTA1 191336Z 21003KT 03/01 A2998 RMK A01 T00300009  RH  086%=      5-min Rain = 0
KTA1 191337Z 21003KT 03/01 A2998 RMK A01 T00300009  RH  086%=      5-min Rain = 0
KTA1 191338Z 21003KT 03/01 A2998 RMK A01 T00310009  RH  086%=      5-min Rain = 0
KTA1 191339Z 21003KT 03/01 A2998 RMK A01 T00310009  RH  086%=      5-min Rain = 0
KTA1 191340Z 21002KT 03/01 A2998 RMK A01 T00310009  RH  086%=      5-min Rain = 0
KTA1 191341Z 21002KT 03/01 A2998 RMK A01 T00310009  RH  086%=      5-min Rain = 0
KTA1 191342Z 21003KT 03/01 A2998 RMK A01 T00310010  RH  086%=      5-min Rain = 0
KTA1 191343Z 21003KT 03/01 A2998 RMK A01 T00310009  RH  085%=      5-min Rain = 0
KTA1 191344Z 21003KT 03/01 A2998 RMK A01 T00310009  RH  085%=      5-min Rain = 0
KTA1 191345Z 21003KT 03/01 A2998 RMK A01 T00310009  RH  085%=      5-min Rain = 0
KTA1 191346Z 21003KT 03/01 A2998 RMK A01 T00310009  RH  085%=      5-min Rain = 0
KTA1 191347Z 21003KT 03/01 A2998 RMK A01 T00320010  RH  085%=      5-min Rain = 0
KTA1 191348Z 21003KT 03/01 A2998 RMK A01 T00320010  RH  085%=      5-min Rain = 0
KTA1 191349Z 21003KT 03/01 A2998 RMK A01 T00320010  RH  085%=      5-min Rain = 0
KTA1 191350Z 21004KT 03/01 A2998 RMK A01 T00320010  RH  085%=      5-min Rain = 0
KTA1 191351Z 21004KT 03/01 A2999 RMK A01 T00330011  RH  085%=      5-min Rain = 0
KTA1 191352Z 20004KT 03/01 A2999 RMK A01 T00330011  RH  085%=      5-min Rain = 0
KTA1 191353Z 21004KT 03/01 A2999 RMK A01 T00330011  RH  085%=      5-min Rain = 0
KTA1 191354Z 21004KT 03/01 A2999 RMK A01 T00340011  RH  085%=      5-min Rain = 0
KTA1 191355Z 22003KT 03/01 A2999 RMK A01 T00340011  RH  085%=      5-min Rain = 0
KTA1 191356Z 22003KT 03/01 A2999 RMK A01 T00340012  RH  085%=      5-min Rain = 0
KTA1 191357Z 22003KT 04/01 A2999 RMK A01 T00350013  RH  085%=      5-min Rain = 0
KTA1 191358Z 22004KT 04/01 A2999 RMK A01 T00350013  RH  085%=      5-min Rain = 0
KTA1 191359Z 22004KT 04/01 A2998 RMK A01 T00360013  RH  085%=      5-min Rain = 0
KTA1 191400Z 22004KT 04/01 A2998 RMK A01 T00360012  RH  084%=      5-min Rain = 0
KTA1 191401Z 21004KT 04/01 A2998 RMK A01 T00370012  RH  084%=      5-min Rain = 0
KTA1 191402Z 21004KT 04/01 A2999 RMK A01 T00370012  RH  084%=      5-min Rain = 0
KTA1 191403Z 21004KT 04/01 A2999 RMK A01 T00380012  RH  083%=      5-min Rain = 0
KTA1 191404Z 20004KT 04/01 A2999 RMK A01 T00380012  RH  083%=      5-min Rain = 0
KTA1 191405Z 21004KT 04/01 A2999 RMK A01 T00390013  RH  083%=      5-min Rain = 0
KTA1 191406Z 21004KT 04/01 A2999 RMK A01 T00400013  RH  083%=      5-min Rain = 0
KTA1 191407Z 21004KT 04/01 A2999 RMK A01 T00410014  RH  082%=      5-min Rain = 0
KTA1 191408Z 21004KT 04/01 A2999 RMK A01 T00430014  RH  082%=      5-min Rain = 0
KTA1 191409Z 22003KT 04/02 A2999 RMK A01 T00440015  RH  081%=      5-min Rain = 0
KTA1 191410Z 22003KT 05/02 A2999 RMK A01 T00460015  RH  080%=      5-min Rain = 0
KTA1 191411Z 22003KT 05/02 A2999 RMK A01 T00470015  RH  080%=      5-min Rain = 0
KTA1 191412Z 21003KT 05/01 A2999 RMK A01 T00480014  RH  079%=      5-min Rain = 0
KTA1 191413Z 21002KT 05/01 A2999 RMK A01 T00490014  RH  078%=      5-min Rain = 0
KTA1 191414Z 21002KT 05/01 A2999 RMK A01 T00500014  RH  078%=      5-min Rain = 0
KTA1 191415Z 21002KT 05/01 A2999 RMK A01 T00510014  RH  077%=      5-min Rain = 0
KTA1 191416Z 21002KT 05/02 A2999 RMK A01 T00510015  RH  077%=      5-min Rain = 0
KTA1 191417Z 21002KT 05/02 A2999 RMK A01 T00520016  RH  077%=      5-min Rain = 0
KTA1 191418Z 21002KT 05/02 A2999 RMK A01 T00530016  RH  077%=      5-min Rain = 0
KTA1 191419Z 21003KT 05/02 A2999 RMK A01 T00530016  RH  077%=      5-min Rain = 0
KTA1 191420Z 21003KT 05/02 A2999 RMK A01 T00540017  RH  077%=      5-min Rain = 0
KTA1 191421Z 21003KT 05/02 A2999 RMK A01 T00540017  RH  077%=      5-min Rain = 0
KTA1 191422Z 22003KT 06/02 A2999 RMK A01 T00550017  RH  076%=      5-min Rain = 0
KTA1 191423Z 22003KT 06/02 A2999 RMK A01 T00550016  RH  076%=      5-min Rain = 0
KTA1 191424Z 22004KT 06/02 A2999 RMK A01 T00560016  RH  075%=      5-min Rain = 0
KTA1 191425Z 22003KT 06/02 A2999 RMK A01 T00560016  RH  075%=      5-min Rain = 0
KTA1 191426Z 22004KT 06/02 A2999 RMK A01 T00570015  RH  074%=      5-min Rain = 0
KTA1 191427Z 23004KT 06/01 A2999 RMK A01 T00580014  RH  074%=      5-min Rain = 0
KTA1 191428Z 22004KT 06/01 A2999 RMK A01 T00580014  RH  074%=      5-min Rain = 0
KTA1 191429Z 23003KT 06/01 A2999 RMK A01 T00580014  RH  073%=      5-min Rain = 0
KTA1 191430Z 23003KT 06/01 A2999 RMK A01 T00570014  RH  074%=      5-min Rain = 0
KTA1 191431Z 23003KT 06/01 A2999 RMK A01 T00570014  RH  074%=      5-min Rain = 0
KTA1 191432Z 23003KT 06/02 A30 RMK A01 T00580015  RH  074%=      5-min Rain = 0
KTA1 191433Z 22003KT 06/02 A30 RMK A01 T00590016  RH  074%=      5-min Rain = 0
KTA1 191434Z 22004KT 06/02 A30 RMK A01 T00600017  RH  074%=      5-min Rain = 0
KTA1 191435Z 22004KT 06/02 A30 RMK A01 T00610016  RH  073%=      5-min Rain = 0
KTA1 191436Z 22004KT 06/02 A30 RMK A01 T00620016  RH  072%=      5-min Rain = 0
KTA1 191437Z 22004KT 06/02 A30 RMK A01 T00640017  RH  072%=      5-min Rain = 0
KTA1 191438Z 23004KT 07/02 A30 RMK A01 T00650017  RH  071%=      5-min Rain = 0
KTA1 191439Z 22004KT 07/02 A30 RMK A01 T00660017  RH  071%=      5-min Rain = 0
KTA1 191440Z 23003KT 07/02 A30 RMK A01 T00670017  RH  071%=      5-min Rain = 0
KTA1 191441Z 23004KT 07/02 A30 RMK A01 T00680018  RH  070%=      5-min Rain = 0
KTA1 191442Z 22004KT 07/02 A30 RMK A01 T00690017  RH  070%=      5-min Rain = 0
KTA1 191443Z 22004KT 07/02 A30 RMK A01 T00690017  RH  069%=      5-min Rain = 0
KTA1 191444Z 22004KT 07/02 A30 RMK A01 T00700018  RH  069%=      5-min Rain = 0
KTA1 191445Z 22003KT 07/02 A30 RMK A01 T00720019  RH  069%=      5-min Rain = 0
KTA1 191446Z 22003KT 07/02 A30 RMK A01 T00730019  RH  069%=      5-min Rain = 0
KTA1 191447Z 22003KT 07/02 A30 RMK A01 T00740019  RH  068%=      5-min Rain = 0
KTA1 191448Z 22003KT 08/02 A30 RMK A01 T00760019  RH  068%=      5-min Rain = 0
KTA1 191449Z 21004KT 08/02 A30 RMK A01 T00770019  RH  067%=      5-min Rain = 0
KTA1 191450Z 21004KT 08/02 A30 RMK A01 T00770017  RH  066%=      5-min Rain = 0
KTA1 191451Z 22004KT 08/02 A2999 RMK A01 T00780018  RH  065%=      5-min Rain = 0
KTA1 191452Z 21004KT 08/02 A2999 RMK A01 T00800018  RH  065%=      5-min Rain = 0
KTA1 191453Z 21004KT 08/02 A2999 RMK A01 T00810019  RH  065%=      5-min Rain = 0
KTA1 191454Z 21004KT 08/02 A2999 RMK A01 T00820020  RH  065%=      5-min Rain = 0
KTA1 191455Z 20003KT 08/02 A2999 RMK A01 T00830020  RH  064%=      5-min Rain = 0
KTA1 191456Z 20003KT 09/02 A2999 RMK A01 T00850021  RH  064%=      5-min Rain = 0
KTA1 191457Z 20004KT 09/02 A2999 RMK A01 T00870023  RH  064%=      5-min Rain = 0
KTA1 191458Z 21004KT 09/02 A2999 RMK A01 T00890023  RH  063%=      5-min Rain = 0
KTA1 191459Z 20005KT 09/02 A2999 RMK A01 T00910022  RH  062%=      5-min Rain = 0
KTA1 191500Z 20005KT 09/02 A2999 RMK A01 T00910022  RH  062%=      5-min Rain = 0
KTA1 191501Z 21004KT 09/02 A2999 RMK A01 T00920022  RH  062%=      5-min Rain = 0
KTA1 191502Z 20003KT 09/02 A2999 RMK A01 T00920022  RH  062%=      5-min Rain = 0
KTA1 191503Z 21003KT 09/02 A2999 RMK A01 T00930023  RH  062%=      5-min Rain = 0
KTA1 191504Z 21004KT 10/02 A2999 RMK A01 T00950024  RH  061%=      5-min Rain = 0
KTA1 191505Z 21003KT 10/02 A2999 RMK A01 T00950024  RH  061%=      5-min Rain = 0
KTA1 191506Z 20004KT 10/03 A2999 RMK A01 T00970026  RH  061%=      5-min Rain = 0
KTA1 191507Z 21005KT 10/03 A2999 RMK A01 T00980026  RH  061%=      5-min Rain = 0
KTA1 191508Z 20004KT 10/03 A2999 RMK A01 T00990027  RH  061%=      5-min Rain = 0
KTA1 191509Z 20004KT 10/03 A2999 RMK A01 T01010029  RH  061%=      5-min Rain = 0
KTA1 191510Z 20004KT 10/03 A2999 RMK A01 T01030030  RH  061%=      5-min Rain = 0
KTA1 191511Z 20004KT 10/03 A2999 RMK A01 T01030029  RH  060%=      5-min Rain = 0
KTA1 191512Z 20005KT 10/03 A2999 RMK A01 T01030029  RH  060%=      5-min Rain = 0
KTA1 191513Z 20005KT 10/03 A2999 RMK A01 T01040030  RH  060%=      5-min Rain = 0
KTA1 191514Z 19004KT 10/03 A2999 RMK A01 T01040030  RH  060%=      5-min Rain = 0
KTA1 191515Z 20004KT 10/03 A2999 RMK A01 T01040030  RH  060%=      5-min Rain = 0
KTA1 191516Z 19004KT 11/03 A2999 RMK A01 T01050030  RH  060%=      5-min Rain = 0
KTA1 191517Z 19004KT 11/03 A2999 RMK A01 T01070033  RH  060%=      5-min Rain = 0
KTA1 191518Z 19004KT 11/03 A2999 RMK A01 T01100034  RH  059%=      5-min Rain = 0
KTA1 191519Z 20004KT 11/03 A2999 RMK A01 T01120034  RH  059%=      5-min Rain = 0
KTA1 191520Z 19004KT 11/04 A2999 RMK A01 T01130035  RH  058%=      5-min Rain = 0
KTA1 191521Z 18005KT 11/03 A2999 RMK A01 T01140034  RH  058%=      5-min Rain = 0
KTA1 191522Z 18006KT 12/04 A2999 RMK A01 T01150035  RH  058%=      5-min Rain = 0
KTA1 191523Z 19007KT 12/04 A2999 RMK A01 T01160035  RH  057%=      5-min Rain = 0
KTA1 191524Z 19006KT 12/04 A2999 RMK A01 T01150035  RH  058%=      5-min Rain = 0
KTA1 191525Z 19005KT 12/04 A2999 RMK A01 T01150036  RH  058%=      5-min Rain = 0
KTA1 191526Z 18007KT 12/04 A2999 RMK A01 T01170037  RH  058%=      5-min Rain = 0
KTA1 191527Z 19005KT 12/04 A2999 RMK A01 T01180037  RH  057%=      5-min Rain = 0
KTA1 191528Z 19006KT 12/04 A2999 RMK A01 T01190038  RH  057%=      5-min Rain = 0
KTA1 191529Z 19006KT 12/04 A2999 RMK A01 T01200037  RH  057%=      5-min Rain = 0
KTA1 191530Z 19006KT 12/04 A2999 RMK A01 T01200037  RH  057%=      5-min Rain = 0
KTA1 191531Z 19006KT 12/04 A2999 RMK A01 T01200037  RH  057%=      5-min Rain = 0
KTA1 191532Z 19006KT 12/04 A2999 RMK A01 T01210038  RH  057%=      5-min Rain = 0
KTA1 191533Z 19006KT 12/04 A2999 RMK A01 T01210038  RH  057%=      5-min Rain = 0
KTA1 191534Z 19006KT 12/04 A2999 RMK A01 T01220039  RH  057%=      5-min Rain = 0
KTA1 191535Z 19005KT 12/04 A2999 RMK A01 T01230039  RH  057%=      5-min Rain = 0
KTA1 191536Z 20005KT 12/04 A2999 RMK A01 T01240040  RH  056%=      5-min Rain = 0
KTA1 191537Z 20006KT 13/04 A2999 RMK A01 T01250041  RH  056%=      5-min Rain = 0
KTA1 191538Z 19005KT 13/04 A2999 RMK A01 T01270042  RH  056%=      5-min Rain = 0
KTA1 191539Z 19007KT 13/04 A2999 RMK A01 T01290043  RH  056%=      5-min Rain = 0
KTA1 191540Z 19006KT 13/04 A2999 RMK A01 T01290043  RH  056%=      5-min Rain = 0
KTA1 191541Z 19006KT 13/04 A2999 RMK A01 T01300044  RH  056%=      5-min Rain = 0
KTA1 191542Z 20006KT 13/04 A2999 RMK A01 T01310044  RH  055%=      5-min Rain = 0
KTA1 191543Z 20006KT 13/04 A2999 RMK A01 T01320044  RH  055%=      5-min Rain = 0
KTA1 191544Z 20007KT 13/05 A2999 RMK A01 T01330045  RH  055%=      5-min Rain = 0
KTA1 191545Z 19006KT 13/05 A2999 RMK A01 T01330045  RH  055%=      5-min Rain = 0
KTA1 191546Z 18007KT 13/05 A2999 RMK A01 T01330046  RH  056%=      5-min Rain = 0
KTA1 191547Z 19007KT 13/05 A2999 RMK A01 T01340046  RH  055%=      5-min Rain = 0
KTA1 191548Z 19006KT 13/05 A2999 RMK A01 T01340047  RH  055%=      5-min Rain = 0
KTA1 191549Z 19006KT 14/05 A2999 RMK A01 T01350048  RH  056%=      5-min Rain = 0
KTA1 191550Z 19006KT 14/05 A2999 RMK A01 T01370049  RH  055%=      5-min Rain = 0
KTA1 191551Z 19007KT 14/05 A2999 RMK A01 T01380049  RH  055%=      5-min Rain = 0
KTA1 191552Z 20005KT 14/05 A2999 RMK A01 T01380049  RH  055%=      5-min Rain = 0
KTA1 191553Z 19007KT 14/05 A2999 RMK A01 T01390050  RH  055%=      5-min Rain = 0
KTA1 191554Z 19007KT 14/05 A2999 RMK A01 T01390049  RH  055%=      5-min Rain = 0
KTA1 191555Z 20006KT 14/05 A2999 RMK A01 T01390050  RH  055%=      5-min Rain = 0
KTA1 191556Z 20006KT 14/05 A2999 RMK A01 T01400051  RH  055%=      5-min Rain = 0
KTA1 191557Z 20006KT 14/05 A2999 RMK A01 T01420052  RH  055%=      5-min Rain = 0
KTA1 191558Z 20007KT 14/05 A2999 RMK A01 T01430052  RH  054%=      5-min Rain = 0
KTA1 191559Z 19008KT 14/05 A2999 RMK A01 T01440052  RH  054%=      5-min Rain = 0
KTA1 191600Z 20007KT 15/05 A2999 RMK A01 T01450052  RH  054%=      5-min Rain = 0
KTA1 191601Z 19007KT 15/05 A2999 RMK A01 T01450052  RH  054%=      5-min Rain = 0
KTA1 191602Z 19006KT 15/05 A2999 RMK A01 T01460053  RH  054%=      5-min Rain = 0
KTA1 191603Z 20006KT 15/05 A2999 RMK A01 T01480054  RH  054%=      5-min Rain = 0
KTA1 191604Z 20006KT 15/06 A2999 RMK A01 T01500055  RH  053%=      5-min Rain = 0
KTA1 191605Z 19005KT 15/06 A2999 RMK A01 T01510055  RH  053%=      5-min Rain = 0
KTA1 191606Z 19007KT 15/06 A2999 RMK A01 T01530056  RH  052%=      5-min Rain = 0
KTA1 191607Z 19007KT 15/06 A2999 RMK A01 T01540055  RH  052%=      5-min Rain = 0
KTA1 191608Z 19006KT 15/06 A2999 RMK A01 T01540055  RH  052%=      5-min Rain = 0
KTA1 191609Z 19006KT 15/06 A2999 RMK A01 T01540056  RH  052%=      5-min Rain = 0
KTA1 191610Z 19006KT 16/06 A2999 RMK A01 T01550056  RH  051%=      5-min Rain = 0
KTA1 191611Z 18006KT 16/06 A2999 RMK A01 T01570057  RH  051%=      5-min Rain = 0
KTA1 191612Z 19006KT 16/06 A2999 RMK A01 T01600058  RH  051%=      5-min Rain = 0
KTA1 191613Z 19005KT 16/06 A2999 RMK A01 T01610057  RH  050%=      5-min Rain = 0
KTA1 191614Z 20006KT 16/06 A2999 RMK A01 T01620057  RH  050%=      5-min Rain = 0
KTA1 191615Z 19007KT 16/06 A2999 RMK A01 T01620057  RH  050%=      5-min Rain = 0
KTA1 191616Z 18008KT 16/06 A2999 RMK A01 T01620057  RH  050%=      5-min Rain = 0
KTA1 191617Z 19007KT 16/06 A2999 RMK A01 T01630056  RH  049%=      5-min Rain = 0
KTA1 191618Z 19008KT 17/06 A2999 RMK A01 T01650057  RH  049%=      5-min Rain = 0
KTA1 191619Z 19007KT 17/06 A2999 RMK A01 T01650056  RH  048%=      5-min Rain = 0
KTA1 191620Z 19007KT 17/06 A2999 RMK A01 T01660057  RH  048%=      5-min Rain = 0
KTA1 191621Z 18008KT 17/06 A2999 RMK A01 T01680056  RH  048%=      5-min Rain = 0
KTA1 191622Z 19008KT 17/05 A2999 RMK A01 T01680053  RH  047%=      5-min Rain = 0
KTA1 191623Z 20009KT 17/05 A2999 RMK A01 T01690053  RH  046%=      5-min Rain = 0
KTA1 191624Z 19007KT 17/05 A2999 RMK A01 T01690053  RH  046%=      5-min Rain = 0
KTA1 191625Z 19007KT 17/06 A2999 RMK A01 T01700055  RH  047%=      5-min Rain = 0
KTA1 191626Z 19006KT 17/05 A2998 RMK A01 T01700054  RH  046%=      5-min Rain = 0
KTA1 191627Z 20007KT 17/06 A2998 RMK A01 T01710055  RH  046%=      5-min Rain = 0
KTA1 191628Z 20008KT 17/05 A2998 RMK A01 T01730054  RH  045%=      5-min Rain = 0
KTA1 191629Z 20007KT 17/05 A2998 RMK A01 T01740053  RH  045%=      5-min Rain = 0
KTA1 191630Z 19007KT 18/05 A2998 RMK A01 T01750054  RH  045%=      5-min Rain = 0
KTA1 191631Z 20007KT 18/05 A2998 RMK A01 T01750054  RH  045%=      5-min Rain = 0
KTA1 191632Z 20006KT 17/06 A2998 RMK A01 T01740055  RH  046%=      5-min Rain = 0
KTA1 191633Z 19007KT 18/05 A2998 RMK A01 T01750054  RH  045%=      5-min Rain = 0
KTA1 191634Z 19007KT 18/05 A2998 RMK A01 T01760054  RH  045%=      5-min Rain = 0
KTA1 191635Z 19007KT 18/05 A2998 RMK A01 T01770054  RH  044%=      5-min Rain = 0
KTA1 191636Z 19007KT 18/05 A2998 RMK A01 T01770054  RH  044%=      5-min Rain = 0
KTA1 191637Z 19008KT 18/05 A2998 RMK A01 T01780053  RH  043%=      5-min Rain = 0
KTA1 191638Z 19007KT 18/05 A2998 RMK A01 T01790053  RH  044%=      5-min Rain = 0
KTA1 191639Z 19007KT 18/05 A2998 RMK A01 T01800054  RH  043%=      5-min Rain = 0
KTA1 191640Z 19007KT 18/06 A2998 RMK A01 T01810055  RH  043%=      5-min Rain = 0
KTA1 191641Z 18008KT 18/05 A2998 RMK A01 T01820054  RH  043%=      5-min Rain = 0
KTA1 191642Z 18007KT 18/05 A2998 RMK A01 T01820053  RH  042%=      5-min Rain = 0
KTA1 191643Z 19009KT 18/05 A2998 RMK A01 T01840053  RH  042%=      5-min Rain = 0
KTA1 191644Z 19009KT 19/05 A2998 RMK A01 T01850051  RH  041%=      5-min Rain = 0
KTA1 191645Z 19008KT 18/05 A2998 RMK A01 T01840050  RH  041%=      5-min Rain = 0
KTA1 191646Z 19007KT 18/05 A2998 RMK A01 T01840051  RH  042%=      5-min Rain = 0
KTA1 191647Z 19009KT 18/05 A2998 RMK A01 T01840051  RH  041%=      5-min Rain = 0
KTA1 191648Z 19008KT 19/05 A2998 RMK A01 T01850050  RH  041%=      5-min Rain = 0
KTA1 191649Z 18008KT 19/05 A2998 RMK A01 T01860051  RH  041%=      5-min Rain = 0
KTA1 191650Z 19008KT 19/05 A2998 RMK A01 T01880050  RH  040%=      5-min Rain = 0
KTA1 191651Z 19009KT 19/05 A2998 RMK A01 T01890052  RH  040%=      5-min Rain = 0
KTA1 191652Z 20010KT 19/05 A2998 RMK A01 T01900050  RH  040%=      5-min Rain = 0
KTA1 191653Z 19008KT 19/05 A2998 RMK A01 T01910049  RH  039%=      5-min Rain = 0
KTA1 191654Z 20008KT 19/05 A2998 RMK A01 T01910049  RH  039%=      5-min Rain = 0
KTA1 191655Z 19010KT 19/05 A2998 RMK A01 T01920046  RH  038%=      5-min Rain = 0
KTA1 191656Z 20008KT 19/05 A2998 RMK A01 T01920047  RH  038%=      5-min Rain = 0
KTA1 191657Z 19008KT 19/05 A2998 RMK A01 T01930052  RH  039%=      5-min Rain = 0
KTA1 191658Z 18007KT 19/05 A2998 RMK A01 T01940050  RH  039%=      5-min Rain = 0
KTA1 191659Z 18009KT 20/04 A2998 RMK A01 T01960044  RH  037%=      5-min Rain = 0
KTA1 191700Z 19010KT 20/04 A2997 RMK A01 T01970041  RH  036%=      5-min Rain = 0
KTA1 191701Z 19009KT 20/04 A2997 RMK A01 T01980039  RH  035%=      5-min Rain = 0
KTA1 191702Z 19009KT 20/04 A2997 RMK A01 T01990041  RH  035%=      5-min Rain = 0
KTA1 191703Z 18008KT 20/04 A2997 RMK A01 T02000043  RH  035%=      5-min Rain = 0
KTA1 191704Z 18008KT 20/04 A2997 RMK A01 T02000043  RH  035%=      5-min Rain = 0
KTA1 191705Z 19007KT 20/05 A2997 RMK A01 T02010045  RH  036%=      5-min Rain = 0
KTA1 191706Z 18008KT 20/05 A2997 RMK A01 T02020045  RH  036%=      5-min Rain = 0
KTA1 191707Z 18008KT 20/05 A2997 RMK A01 T02030045  RH  035%=      5-min Rain = 0
KTA1 191708Z 18007KT 20/04 A2997 RMK A01 T02030044  RH  035%=      5-min Rain = 0
KTA1 191709Z 19006KT 20/05 A2997 RMK A01 T02030046  RH  036%=      5-min Rain = 0
KTA1 191710Z 19008KT 20/05 A2997 RMK A01 T02030045  RH  035%=      5-min Rain = 0
KTA1 191711Z 19007KT 20/04 A2997 RMK A01 T02040041  RH  034%=      5-min Rain = 0
KTA1 191712Z 18008KT 20/04 A2997 RMK A01 T02040040  RH  034%=      5-min Rain = 0
KTA1 191713Z 18007KT 20/04 A2997 RMK A01 T02040041  RH  034%=      5-min Rain = 0
KTA1 191714Z 17007KT 21/04 A2997 RMK A01 T02050044  RH  035%=      5-min Rain = 0
KTA1 191715Z 19007KT 21/05 A2997 RMK A01 T02060045  RH  035%=      5-min Rain = 0
KTA1 191716Z 19006KT 21/05 A2997 RMK A01 T02070045  RH  034%=      5-min Rain = 0
KTA1 191717Z 19006KT 21/05 A2997 RMK A01 T02070045  RH  034%=      5-min Rain = 0
KTA1 191718Z 19007KT 21/05 A2997 RMK A01 T02070046  RH  035%=      5-min Rain = 0
KTA1 191719Z 19004KT 21/05 A2997 RMK A01 T02080046  RH  035%=      5-min Rain = 0
KTA1 191720Z 19007KT 21/05 A2997 RMK A01 T02090046  RH  034%=      5-min Rain = 0
KTA1 191721Z 19005KT 21/05 A2996 RMK A01 T02100046  RH  034%=      5-min Rain = 0
KTA1 191722Z 19008KT 21/05 A2996 RMK A01 T02110047  RH  034%=      5-min Rain = 0
KTA1 191723Z 19007KT 21/05 A2996 RMK A01 T02120047  RH  034%=      5-min Rain = 0
KTA1 191724Z 19007KT 21/05 A2996 RMK A01 T02130048  RH  034%=      5-min Rain = 0
KTA1 191725Z 19008KT 21/05 A2996 RMK A01 T02130046  RH  034%=      5-min Rain = 0
KTA1 191726Z 18007KT 21/05 A2996 RMK A01 T02110046  RH  034%=      5-min Rain = 0
KTA1 191727Z 19005KT 21/04 A2996 RMK A01 T02100044  RH  034%=      5-min Rain = 0
KTA1 191728Z 18007KT 21/05 A2996 RMK A01 T02120047  RH  034%=      5-min Rain = 0
KTA1 191729Z 18009KT 21/04 A2996 RMK A01 T02140043  RH  032%=      5-min Rain = 0
KTA1 191730Z 18009KT 22/04 A2996 RMK A01 T02150040  RH  032%=      5-min Rain = 0
KTA1 191731Z 18008KT 22/04 A2996 RMK A01 T02150042  RH  032%=      5-min Rain = 0
KTA1 191732Z 18007KT 22/05 A2996 RMK A01 T02150045  RH  033%=      5-min Rain = 0
KTA1 191733Z 16006KT 22/05 A2996 RMK A01 T02170046  RH  033%=      5-min Rain = 0
KTA1 191734Z 15007KT 22/05 A2996 RMK A01 T02180048  RH  033%=      5-min Rain = 0
KTA1 191735Z 17007KT 22/05 A2996 RMK A01 T02200048  RH  033%=      5-min Rain = 0
KTA1 191736Z 17008KT 22/04 A2995 RMK A01 T02210042  RH  031%=      5-min Rain = 0
KTA1 191737Z 16007KT 22/05 A2995 RMK A01 T02210046  RH  032%=      5-min Rain = 0
KTA1 191738Z 17008KT 22/05 A2995 RMK A01 T02210048  RH  032%=      5-min Rain = 0
KTA1 191739Z 15007KT 22/05 A2995 RMK A01 T02220049  RH  032%=      5-min Rain = 0
KTA1 191740Z 15007KT 22/05 A2995 RMK A01 T02220050  RH  033%=      5-min Rain = 0
KTA1 191741Z 15009KT 22/05 A2995 RMK A01 T02240050  RH  032%=      5-min Rain = 0
KTA1 191742Z 15006KT 23/05 A2995 RMK A01 T02250050  RH  032%=      5-min Rain = 0
KTA1 191743Z 16007KT 23/05 A2995 RMK A01 T02260050  RH  032%=      5-min Rain = 0
KTA1 191744Z 15007KT 23/05 A2995 RMK A01 T02270047  RH  031%=      5-min Rain = 0
KTA1 191745Z 15006KT 23/05 A2995 RMK A01 T02260048  RH  031%=      5-min Rain = 0
KTA1 191746Z 16008KT 23/05 A2995 RMK A01 T02260048  RH  031%=      5-min Rain = 0
KTA1 191747Z 16008KT 23/05 A2995 RMK A01 T02260047  RH  031%=      5-min Rain = 0
KTA1 191748Z 16007KT 23/05 A2995 RMK A01 T02250045  RH  031%=      5-min Rain = 0
KTA1 191749Z 15008KT 23/04 A2995 RMK A01 T02260043  RH  030%=      5-min Rain = 0
KTA1 191750Z 15007KT 23/04 A2995 RMK A01 T02280042  RH  030%=      5-min Rain = 0
KTA1 191751Z 15007KT 23/04 A2995 RMK A01 T02280044  RH  030%=      5-min Rain = 0
KTA1 191752Z 16006KT 23/05 A2995 RMK A01 T02280045  RH  030%=      5-min Rain = 0
KTA1 191753Z 17008KT 23/04 A2995 RMK A01 T02270043  RH  030%=      5-min Rain = 0
KTA1 191754Z 16006KT 23/04 A2995 RMK A01 T02270042  RH  030%=      5-min Rain = 0
KTA1 191755Z 15008KT 23/05 A2995 RMK A01 T02280046  RH  030%=      5-min Rain = 0
KTA1 191756Z 14010KT 23/05 A2995 RMK A01 T02300045  RH  030%=      5-min Rain = 0
KTA1 191757Z 15007KT 23/04 A2995 RMK A01 T02280043  RH  030%=      5-min Rain = 0
KTA1 191758Z 17009KT 23/05 A2995 RMK A01 T02260045  RH  031%=      5-min Rain = 0
KTA1 191759Z 18009KT 23/04 A2994 RMK A01 T02270043  RH  030%=      5-min Rain = 0
KTA1 191800Z 17008KT 23/04 A2995 RMK A01 T02270043  RH  030%=      5-min Rain = 0
KTA1 191801Z 16008KT 23/04 A2994 RMK A01 T02260040  RH  030%=      5-min Rain = 0
KTA1 191802Z 17010KT 23/04 A2994 RMK A01 T02260041  RH  030%=      5-min Rain = 0
KTA1 191803Z 17010KT 23/04 A2994 RMK A01 T02260040  RH  030%=      5-min Rain = 0
KTA1 191804Z 18007KT 23/04 A2994 RMK A01 T02270041  RH  030%=      5-min Rain = 0
KTA1 191805Z 16009KT 23/04 A2994 RMK A01 T02280042  RH  030%=      5-min Rain = 0
KTA1 191806Z 16008KT 23/04 A2994 RMK A01 T02290042  RH  029%=      5-min Rain = 0
KTA1 191807Z 16008KT 23/04 A2994 RMK A01 T02290043  RH  030%=      5-min Rain = 0
KTA1 191808Z 17007KT 23/04 A2994 RMK A01 T02270041  RH  030%=      5-min Rain = 0
KTA1 191809Z 16009KT 23/04 A2994 RMK A01 T02270042  RH  030%=      5-min Rain = 0
KTA1 191810Z 16007KT 23/04 A2994 RMK A01 T02270042  RH  030%=      5-min Rain = 0
KTA1 191811Z 17010KT 23/04 A2994 RMK A01 T02280042  RH  030%=      5-min Rain = 0
KTA1 191812Z 17010KT 23/04 A2994 RMK A01 T02290043  RH  030%=      5-min Rain = 0
KTA1 191813Z 17007KT 23/04 A2994 RMK A01 T02280044  RH  030%=      5-min Rain = 0
KTA1 191814Z 15008KT 23/04 A2994 RMK A01 T02290044  RH  030%=      5-min Rain = 0
KTA1 191815Z 16009KT 23/04 A2994 RMK A01 T02320043  RH  029%=      5-min Rain = 0
KTA1 191816Z 17008KT 23/04 A2994 RMK A01 T02320043  RH  029%=      5-min Rain = 0
KTA1 191817Z 15007KT 23/04 A2994 RMK A01 T02320044  RH  029%=      5-min Rain = 0
KTA1 191818Z 15008KT 23/05 A2994 RMK A01 T02320050  RH  031%=      5-min Rain = 0
KTA1 191819Z 14006KT 23/05 A2993 RMK A01 T02320051  RH  031%=      5-min Rain = 0
KTA1 191820Z 15009KT 23/05 A2993 RMK A01 T02310049  RH  031%=      5-min Rain = 0
KTA1 191821Z 17007KT 23/05 A2993 RMK A01 T02310048  RH  030%=      5-min Rain = 0
KTA1 191822Z 16008KT 23/05 A2993 RMK A01 T02320048  RH  030%=      5-min Rain = 0
KTA1 191823Z 16008KT 23/05 A2993 RMK A01 T02340045  RH  029%=      5-min Rain = 0
KTA1 191824Z 17007KT 23/05 A2993 RMK A01 T02330046  RH  030%=      5-min Rain = 0
KTA1 191825Z 16006KT 23/05 A2993 RMK A01 T02320047  RH  030%=      5-min Rain = 0
KTA1 191826Z 16009KT 23/05 A2993 RMK A01 T02320046  RH  030%=      5-min Rain = 0
KTA1 191827Z 16010KT 23/05 A2993 RMK A01 T02330046  RH  030%=      5-min Rain = 0
KTA1 191828Z 17008KT 23/04 A2993 RMK A01 T02340040  RH  028%=      5-min Rain = 0
KTA1 191829Z 18008KT 23/04 A2993 RMK A01 T02340039  RH  028%=      5-min Rain = 0
KTA1 191830Z 17008KT 23/04 A2993 RMK A01 T02340039  RH  028%=      5-min Rain = 0
KTA1 191831Z 17009KT 23/04 A2993 RMK A01 T02330040  RH  028%=      5-min Rain = 0
KTA1 191832Z 17011KT 23/04 A2993 RMK A01 T02330040  RH  028%=      5-min Rain = 0
KTA1 191833Z 17008KT 23/04 A2993 RMK A01 T02340040  RH  028%=      5-min Rain = 0
KTA1 191834Z 17009KT 23/04 A2993 RMK A01 T02340041  RH  029%=      5-min Rain = 0
KTA1 191835Z 18008KT 24/04 A2993 RMK A01 T02360040  RH  028%=      5-min Rain = 0
KTA1 191836Z 18008KT 24/04 A2992 RMK A01 T02370042  RH  028%=      5-min Rain = 0
KTA1 191837Z 18008KT 24/04 A2992 RMK A01 T02380043  RH  028%=      5-min Rain = 0
KTA1 191838Z 17009KT 24/04 A2992 RMK A01 T02370042  RH  028%=      5-min Rain = 0
KTA1 191839Z 16011KT 24/04 A2992 RMK A01 T02380040  RH  028%=      5-min Rain = 0
KTA1 191840Z 16010KT 24/04 A2992 RMK A01 T02390037  RH  027%=      5-min Rain = 0
KTA1 191841Z 15007KT 24/04 A2992 RMK A01 T02390039  RH  027%=      5-min Rain = 0
KTA1 191842Z 17007KT 24/04 A2992 RMK A01 T02400043  RH  028%=      5-min Rain = 0
KTA1 191843Z 17007KT 24/04 A2992 RMK A01 T02420038  RH  027%=      5-min Rain = 0
KTA1 191844Z 17009KT 24/04 A2992 RMK A01 T02420039  RH  027%=      5-min Rain = 0
KTA1 191845Z 18009KT 24/03 A2992 RMK A01 T02430033  RH  026%=      5-min Rain = 0
KTA1 191846Z 17010KT 24/03 A2992 RMK A01 T02420033  RH  026%=      5-min Rain = 0
KTA1 191847Z 17009KT 24/03 A2992 RMK A01 T02420032  RH  025%=      5-min Rain = 0
KTA1 191848Z 18011KT 24/03 A2992 RMK A01 T02440030  RH  025%=      5-min Rain = 0
KTA1 191849Z 19009KT 25/03 A2992 RMK A01 T02450029  RH  024%=      5-min Rain = 0
KTA1 191850Z 20008KT 25/03 A2992 RMK A01 T02450028  RH  024%=      5-min Rain = 0
KTA1 191851Z 20009KT 25/03 A2992 RMK A01 T02450027  RH  024%=      5-min Rain = 0
KTA1 191852Z 20009KT 25/03 A2992 RMK A01 T02460028  RH  024%=      5-min Rain = 0
KTA1 191853Z 20010KT 25/02 A2991 RMK A01 T02460022  RH  023%=      5-min Rain = 0
KTA1 191854Z 19009KT 25/02 A2991 RMK A01 T02450022  RH  023%=      5-min Rain = 0
KTA1 191855Z 19008KT 24/02 A2991 RMK A01 T02440024  RH  024%=      5-min Rain = 0
KTA1 191856Z 19006KT 25/03 A2991 RMK A01 T02450026  RH  024%=      5-min Rain = 0
KTA1 191857Z 17009KT 25/03 A2991 RMK A01 T02480027  RH  024%=      5-min Rain = 0
KTA1 191858Z 19011KT 25/03 A2991 RMK A01 T02490025  RH  023%=      5-min Rain = 0
KTA1 191859Z 19009KT 25/03 A2991 RMK A01 T02500025  RH  023%=      5-min Rain = 0
KTA1 191900Z 19010KT 25/03 A2991 RMK A01 T02490026  RH  023%=      5-min Rain = 0
KTA1 191901Z 19009KT 25/02 A2991 RMK A01 T02480024  RH  023%=      5-min Rain = 0
KTA1 191902Z 18010KT 25/02 A2991 RMK A01 T02470023  RH  023%=      5-min Rain = 0
KTA1 191903Z 18011KT 25/02 A2991 RMK A01 T02470022  RH  023%=      5-min Rain = 0
KTA1 191904Z 19010KT 25/02 A2991 RMK A01 T02470022  RH  023%=      5-min Rain = 0
KTA1 191905Z 19006KT 25/02 A2991 RMK A01 T02460022  RH  023%=      5-min Rain = 0
KTA1 191906Z 20011KT 25/02 A2991 RMK A01 T02460023  RH  023%=      5-min Rain = 0
KTA1 191907Z 22008KT 25/02 A2991 RMK A01 T02480018  RH  022%=      5-min Rain = 0
KTA1 191908Z 21009KT 25/02 A2991 RMK A01 T02480020  RH  023%=      5-min Rain = 0
KTA1 191909Z 20012KT 25/02 A2991 RMK A01 T02490020  RH  022%=      5-min Rain = 0
KTA1 191910Z 20009KT 25/02 A299 RMK A01 T02480016  RH  022%=      5-min Rain = 0
KTA1 191911Z 18009KT 25/02 A299 RMK A01 T02490019  RH  022%=      5-min Rain = 0
KTA1 191912Z 19010KT 25/02 A299 RMK A01 T02510019  RH  022%=      5-min Rain = 0
KTA1 191913Z 20011KT 25/02 A299 RMK A01 T02510019  RH  022%=      5-min Rain = 0
KTA1 191914Z 21010KT 25/02 A299 RMK A01 T02500019  RH  022%=      5-min Rain = 0
KTA1 191915Z 21011KT 25/02 A299 RMK A01 T02490018  RH  022%=      5-min Rain = 0
KTA1 191916Z 19009KT 25/02 A299 RMK A01 T02480020  RH  023%=      5-min Rain = 0
KTA1 191917Z 18011KT 25/02 A299 RMK A01 T02510021  RH  022%=      5-min Rain = 0
KTA1 191918Z 18012KT 25/02 A299 RMK A01 T02520019  RH  022%=      5-min Rain = 0
KTA1 191919Z 18011KT 25/02 A299 RMK A01 T02520018  RH  022%=      5-min Rain = 0
KTA1 191920Z 18008KT 25/02 A299 RMK A01 T02500018  RH  022%=      5-min Rain = 0
KTA1 191921Z 18010KT 25/02 A299 RMK A01 T02500021  RH  022%=      5-min Rain = 0
KTA1 191922Z 18010KT 25/02 A299 RMK A01 T02530020  RH  022%=      5-min Rain = 0
KTA1 191923Z 19008KT 25/02 A299 RMK A01 T02530019  RH  022%=      5-min Rain = 0
KTA1 191924Z 18012KT 26/02 A2989 RMK A01 T02550020  RH  022%=      5-min Rain = 0
KTA1 191925Z 17011KT 26/02 A2989 RMK A01 T02550018  RH  021%=      5-min Rain = 0
KTA1 191926Z 19010KT 25/02 A2989 RMK A01 T02540017  RH  021%=      5-min Rain = 0
KTA1 191927Z 21009G14KT 25/02 A2989 RMK A01 T02530019  RH  022%=      5-min Rain = 0
KTA1 191928Z 20010KT 25/02 A2989 RMK A01 T02520017  RH  022%=      5-min Rain = 0
KTA1 191929Z 20010KT 25/02 A2989 RMK A01 T02520018  RH  022%=      5-min Rain = 0
KTA1 191930Z 19010KT 25/02 A2989 RMK A01 T02530017  RH  021%=      5-min Rain = 0
KTA1 191931Z 19009KT 25/02 A2989 RMK A01 T02530018  RH  022%=      5-min Rain = 0
KTA1 191932Z 17011KT 25/02 A2989 RMK A01 T02530020  RH  022%=      5-min Rain = 0
KTA1 191933Z 17013KT 25/02 A2989 RMK A01 T02530017  RH  021%=      5-min Rain = 0
KTA1 191934Z 18010KT 25/02 A2989 RMK A01 T02530017  RH  021%=      5-min Rain = 0
KTA1 191935Z 19010KT 25/02 A2989 RMK A01 T02530018  RH  022%=      5-min Rain = 0
KTA1 191936Z 19009KT 25/02 A2989 RMK A01 T02530016  RH  021%=      5-min Rain = 0
KTA1 191937Z 20010KT 25/02 A2989 RMK A01 T02530016  RH  021%=      5-min Rain = 0
KTA1 191938Z 19011KT 25/02 A2989 RMK A01 T02530015  RH  021%=      5-min Rain = 0
KTA1 191939Z 19008KT 25/01 A2989 RMK A01 T02530011  RH  021%=      5-min Rain = 0
KTA1 191940Z 22010KT 25/01 A2988 RMK A01 T02530013  RH  021%=      5-min Rain = 0
KTA1 191941Z 20010KT 25/01 A2988 RMK A01 T02530012  RH  021%=      5-min Rain = 0
KTA1 191942Z 18008KT 25/02 A2988 RMK A01 T02530017  RH  021%=      5-min Rain = 0
KTA1 191943Z 19010KT 26/02 A2988 RMK A01 T02550016  RH  021%=      5-min Rain = 0
KTA1 191944Z 19010KT 25/01 A2988 RMK A01 T02540014  RH  021%=      5-min Rain = 0
KTA1 191945Z 19009KT 25/01 A2988 RMK A01 T02510014  RH  021%=      5-min Rain = 0
KTA1 191946Z 19011KT 25/01 A2988 RMK A01 T02490013  RH  021%=      5-min Rain = 0
KTA1 191947Z 18009KT 25/01 A2988 RMK A01 T02490014  RH  021%=      5-min Rain = 0
KTA1 191948Z 19010KT 25/01 A2988 RMK A01 T02490013  RH  021%=      5-min Rain = 0
KTA1 191949Z 20008KT 25/01 A2988 RMK A01 T02480014  RH  022%=      5-min Rain = 0
KTA1 191950Z 20008KT 25/02 A2988 RMK A01 T02480015  RH  022%=      5-min Rain = 0
KTA1 191951Z 19009KT 25/02 A2988 RMK A01 T02480017  RH  022%=      5-min Rain = 0
KTA1 191952Z 18012KT 25/02 A2988 RMK A01 T02490017  RH  022%=      5-min Rain = 0
KTA1 191953Z 19010KT 25/01 A2988 RMK A01 T02480014  RH  022%=      5-min Rain = 0
KTA1 191954Z 18011KT 25/01 A2988 RMK A01 T02460013  RH  022%=      5-min Rain = 0
KTA1 191955Z 17011KT 25/01 A2988 RMK A01 T02460013  RH  022%=      5-min Rain = 0
KTA1 191956Z 18010KT 25/01 A2988 RMK A01 T02460012  RH  021%=      5-min Rain = 0
KTA1 191957Z 19010KT 25/01 A2988 RMK A01 T02480014  RH  022%=      5-min Rain = 0
KTA1 191958Z 18009KT 25/02 A2988 RMK A01 T02500018  RH  022%=      5-min Rain = 0
KTA1 191959Z 19009KT 25/02 A2988 RMK A01 T02530020  RH  022%=      5-min Rain = 0
KTA1 192000Z 19009KT 25/02 A2988 RMK A01 T02540015  RH  021%=      5-min Rain = 0
KTA1 192001Z 18010KT 25/02 A2988 RMK A01 T02540015  RH  021%=      5-min Rain = 0
KTA1 192002Z 18008KT 25/02 A2988 RMK A01 T02540015  RH  021%=      5-min Rain = 0
KTA1 192003Z 19008KT 26/02 A2988 RMK A01 T02550018  RH  021%=      5-min Rain = 0
KTA1 192004Z 17011KT 26/02 A2988 RMK A01 T02570021  RH  022%=      5-min Rain = 0
KTA1 192005Z 18011KT 26/02 A2987 RMK A01 T02570020  RH  021%=      5-min Rain = 0
KTA1 192006Z 18010KT 26/02 A2987 RMK A01 T02560020  RH  022%=      5-min Rain = 0
KTA1 192007Z 18008KT 26/02 A2987 RMK A01 T02550022  RH  022%=      5-min Rain = 0
KTA1 192008Z 17011KT 26/02 A2987 RMK A01 T02570023  RH  022%=      5-min Rain = 0
KTA1 192009Z 17011KT 26/02 A2987 RMK A01 T02590021  RH  021%=      5-min Rain = 0
KTA1 192010Z 18009KT 26/02 A2987 RMK A01 T02580019  RH  021%=      5-min Rain = 0
KTA1 192011Z 17010KT 26/02 A2987 RMK A01 T02570020  RH  021%=      5-min Rain = 0
KTA1 192012Z 18010KT 26/02 A2987 RMK A01 T02570019  RH  021%=      5-min Rain = 0
KTA1 192013Z 18009KT 26/02 A2987 RMK A01 T02570019  RH  021%=      5-min Rain = 0
KTA1 192014Z 18011KT 26/02 A2987 RMK A01 T02560019  RH  021%=      5-min Rain = 0
KTA1 192015Z 18010KT 26/02 A2987 RMK A01 T02550019  RH  022%=      5-min Rain = 0
KTA1 192016Z 18009KT 26/02 A2987 RMK A01 T02560021  RH  022%=      5-min Rain = 0
KTA1 192017Z 19009KT 26/02 A2987 RMK A01 T02590019  RH  021%=      5-min Rain = 0
KTA1 192018Z 20012KT 26/02 A2987 RMK A01 T02590018  RH  021%=      5-min Rain = 0
KTA1 192019Z 20011KT 26/02 A2987 RMK A01 T02590017  RH  021%=      5-min Rain = 0
KTA1 192020Z 19009KT 26/02 A2987 RMK A01 T02580017  RH  021%=      5-min Rain = 0
KTA1 192021Z 18009KT 26/02 A2987 RMK A01 T02590019  RH  021%=      5-min Rain = 0
KTA1 192022Z 18009KT 26/02 A2987 RMK A01 T02580022  RH  021%=      5-min Rain = 0
KTA1 192023Z 17009G14KT 26/02 A2987 RMK A01 T02570022  RH  022%=      5-min Rain = 0
KTA1 192024Z 18012KT 26/02 A2987 RMK A01 T02570017  RH  021%=      5-min Rain = 0
KTA1 192025Z 19012KT 26/02 A2987 RMK A01 T02580016  RH  021%=      5-min Rain = 0
KTA1 192026Z 19011KT 26/02 A2987 RMK A01 T02570015  RH  021%=      5-min Rain = 0
KTA1 192027Z 18010KT 26/01 A2987 RMK A01 T02570014  RH  020%=      5-min Rain = 0
KTA1 192028Z 19009KT 26/01 A2987 RMK A01 T02570013  RH  020%=      5-min Rain = 0
KTA1 192029Z 21009KT 26/01 A2987 RMK A01 T02580009  RH  020%=      5-min Rain = 0
KTA1 192030Z 21009KT 26/01 A2986 RMK A01 T02590005  RH  019%=      5-min Rain = 0
KTA1 192031Z 21012KT 26/00 A2986 RMK A01 T02590004  RH  019%=      5-min Rain = 0
KTA1 192032Z 20011KT 26/00 A2987 RMK A01 T02590004  RH  019%=      5-min Rain = 0
KTA1 192033Z 19010KT 26/01 A2987 RMK A01 T02600005  RH  019%=      5-min Rain = 0
KTA1 192034Z 18012KT 26/01 A2987 RMK A01 T02620005  RH  019%=      5-min Rain = 0
KTA1 192035Z 18010KT 26/00 A2987 RMK A01 T026200-0  RH  018%=      5-min Rain = 0
KTA1 192036Z 19010KT 26/00 A2986 RMK A01 T02600002  RH  018%=      5-min Rain = 0
KTA1 192037Z 19011KT 26/01 A2986 RMK A01 T02590005  RH  019%=      5-min Rain = 0
KTA1 192038Z 18012KT 26/00 A2986 RMK A01 T02590004  RH  019%=      5-min Rain = 0
KTA1 192039Z 18012KT 26/00 A2986 RMK A01 T02590004  RH  019%=      5-min Rain = 0
KTA1 192040Z 20012KT 26/01 A2986 RMK A01 T02600006  RH  019%=      5-min Rain = 0
KTA1 192041Z 20011KT 26/01 A2986 RMK A01 T02600005  RH  019%=      5-min Rain = 0
KTA1 192042Z 20012KT 26/01 A2986 RMK A01 T02600006  RH  019%=      5-min Rain = 0
KTA1 192043Z 19008KT 26/01 A2986 RMK A01 T02590006  RH  019%=      5-min Rain = 0
KTA1 192044Z 19008KT 26/01 A2986 RMK A01 T02580007  RH  019%=      5-min Rain = 0
KTA1 192045Z 19011KT 26/01 A2986 RMK A01 T02590007  RH  019%=      5-min Rain = 0
KTA1 192046Z 19010KT 26/01 A2986 RMK A01 T02580007  RH  019%=      5-min Rain = 0
KTA1 192047Z 18008KT 26/01 A2986 RMK A01 T02570008  RH  020%=      5-min Rain = 0
KTA1 192048Z 19008KT 26/01 A2986 RMK A01 T02580007  RH  019%=      5-min Rain = 0
KTA1 192049Z 21010KT 26/01 A2986 RMK A01 T02580008  RH  020%=      5-min Rain = 0
KTA1 192050Z 18010KT 26/01 A2986 RMK A01 T02600010  RH  020%=      5-min Rain = 0
KTA1 192051Z 19007KT 26/01 A2986 RMK A01 T02610008  RH  019%=      5-min Rain = 0
KTA1 192052Z 21010KT 26/01 A2986 RMK A01 T02620010  RH  019%=      5-min Rain = 0
KTA1 192053Z 19010KT 26/01 A2986 RMK A01 T02630010  RH  019%=      5-min Rain = 0
KTA1 192054Z 19009KT 26/01 A2986 RMK A01 T02620008  RH  019%=      5-min Rain = 0
KTA1 192055Z 20010KT 26/01 A2986 RMK A01 T02610009  RH  019%=      5-min Rain = 0
KTA1 192056Z 20011KT 26/01 A2986 RMK A01 T02620009  RH  019%=      5-min Rain = 0
KTA1 192057Z 19009KT 26/01 A2986 RMK A01 T02620008  RH  019%=      5-min Rain = 0
KTA1 192058Z 19007KT 26/01 A2986 RMK A01 T02620008  RH  019%=      5-min Rain = 0
KTA1 192059Z 19009KT 26/01 A2985 RMK A01 T02630010  RH  019%=      5-min Rain = 0
KTA1 192100Z 18009KT 26/01 A2985 RMK A01 T02630009  RH  019%=      5-min Rain = 0
KTA1 192101Z 19009KT 26/01 A2985 RMK A01 T02630010  RH  019%=      5-min Rain = 0
KTA1 192102Z 19011KT 26/01 A2985 RMK A01 T02640011  RH  019%=      5-min Rain = 0
KTA1 192103Z 18012KT 26/01 A2985 RMK A01 T02640010  RH  019%=      5-min Rain = 0
KTA1 192104Z 18008KT 26/01 A2985 RMK A01 T02630009  RH  019%=      5-min Rain = 0
KTA1 192105Z 21008KT 26/01 A2985 RMK A01 T02620009  RH  019%=      5-min Rain = 0
KTA1 192106Z 20007KT 26/01 A2985 RMK A01 T02620009  RH  019%=      5-min Rain = 0
KTA1 192107Z 19006KT 26/01 A2985 RMK A01 T02620010  RH  019%=      5-min Rain = 0
KTA1 192108Z 19007KT 26/01 A2985 RMK A01 T02620009  RH  019%=      5-min Rain = 0
KTA1 192109Z 19008KT 26/01 A2985 RMK A01 T02640011  RH  019%=      5-min Rain = 0
KTA1 192110Z 20008KT 27/01 A2985 RMK A01 T02660013  RH  019%=      5-min Rain = 0
KTA1 192111Z 20009KT 27/01 A2985 RMK A01 T02680009  RH  019%=      5-min Rain = 0
KTA1 192112Z 19006KT 27/01 A2985 RMK A01 T02660009  RH  019%=      5-min Rain = 0
KTA1 192113Z 19009G14KT 27/01 A2985 RMK A01 T02650010  RH  019%=      5-min Rain = 0
KTA1 192114Z 19009KT 27/01 A2985 RMK A01 T02650010  RH  019%=      5-min Rain = 0
KTA1 192115Z 17009KT 26/01 A2985 RMK A01 T02640010  RH  019%=      5-min Rain = 0
KTA1 192116Z 16010KT 26/01 A2985 RMK A01 T02630010  RH  019%=      5-min Rain = 0
KTA1 192117Z 17011KT 26/01 A2985 RMK A01 T02630009  RH  019%=      5-min Rain = 0
KTA1 192118Z 18011KT 26/01 A2985 RMK A01 T02630009  RH  019%=      5-min Rain = 0
KTA1 192119Z 18012KT 26/01 A2985 RMK A01 T02620009  RH  019%=      5-min Rain = 0
KTA1 192120Z 20011KT 26/01 A2985 RMK A01 T02620007  RH  019%=      5-min Rain = 0
KTA1 192121Z 19012KT 26/00 A2985 RMK A01 T02620003  RH  018%=      5-min Rain = 0
KTA1 192122Z 18011KT 26/00 A2985 RMK A01 T02620002  RH  018%=      5-min Rain = 0
KTA1 192123Z 20012KT 26/00 A2984 RMK A01 T02620004  RH  018%=      5-min Rain = 0
KTA1 192124Z 20011KT 26/00 A2984 RMK A01 T02620003  RH  018%=      5-min Rain = 0
KTA1 192125Z 19009KT 26/00 A2985 RMK A01 T02630004  RH  018%=      5-min Rain = 0
KTA1 192126Z 18010KT 26/00 A2984 RMK A01 T02640003  RH  018%=      5-min Rain = 0
KTA1 192127Z 18007KT 26/01 A2984 RMK A01 T02640005  RH  018%=      5-min Rain = 0
KTA1 192128Z 20010KT 26/01 A2984 RMK A01 T02640005  RH  018%=      5-min Rain = 0
KTA1 192129Z 19009KT 26/01 A2984 RMK A01 T02640006  RH  019%=      5-min Rain = 0
KTA1 192130Z 19008KT 26/01 A2984 RMK A01 T02640007  RH  019%=      5-min Rain = 0
KTA1 192131Z 19007KT 26/01 A2984 RMK A01 T02640006  RH  019%=      5-min Rain = 0
KTA1 192132Z 17010KT 26/01 A2984 RMK A01 T02640008  RH  019%=      5-min Rain = 0
KTA1 192133Z 17011KT 26/01 A2984 RMK A01 T02640006  RH  018%=      5-min Rain = 0
KTA1 192134Z 16013G19KT 26/00 A2984 RMK A01 T02640004  RH  018%=      5-min Rain = 0
KTA1 192135Z 19013KT 26/01 A2984 RMK A01 T02630006  RH  019%=      5-min Rain = 0
KTA1 192136Z 19011KT 26/01 A2984 RMK A01 T02630005  RH  019%=      5-min Rain = 0
KTA1 192137Z 19010KT 26/01 A2984 RMK A01 T02630005  RH  018%=      5-min Rain = 0
KTA1 192138Z 19009KT 26/01 A2984 RMK A01 T02630005  RH  018%=      5-min Rain = 0
KTA1 192139Z 18010KT 26/01 A2984 RMK A01 T02640005  RH  019%=      5-min Rain = 0
KTA1 192140Z 18008KT 26/01 A2984 RMK A01 T02630006  RH  019%=      5-min Rain = 0
KTA1 192141Z 18007KT 26/01 A2984 RMK A01 T02630008  RH  019%=      5-min Rain = 0
KTA1 192142Z 19007KT 26/01 A2984 RMK A01 T02640010  RH  019%=      5-min Rain = 0
KTA1 192143Z 19010KT 27/01 A2984 RMK A01 T02650008  RH  019%=      5-min Rain = 0
KTA1 192144Z 18009KT 26/01 A2984 RMK A01 T02640007  RH  019%=      5-min Rain = 0
KTA1 192145Z 18009KT 26/01 A2984 RMK A01 T02630005  RH  018%=      5-min Rain = 0
KTA1 192146Z 19013KT 26/00 A2984 RMK A01 T02630003  RH  018%=      5-min Rain = 0
KTA1 192147Z 19011KT 26/M00 A2984 RMK A01 T02621002  RH  018%=      5-min Rain = 0
KTA1 192148Z 19011KT 26/00 A2984 RMK A01 T026100-0  RH  018%=      5-min Rain = 0
KTA1 192149Z 19011KT 26/00 A2984 RMK A01 T02610000  RH  018%=      5-min Rain = 0
KTA1 192150Z 18011KT 26/M00 A2984 RMK A01 T02611003  RH  018%=      5-min Rain = 0
KTA1 192151Z 19011KT 26/M00 A2984 RMK A01 T02621003  RH  018%=      5-min Rain = 0
KTA1 192152Z 18011KT 26/M00 A2984 RMK A01 T02621004  RH  017%=      5-min Rain = 0
KTA1 192153Z 18010KT 26/M00 A2984 RMK A01 T02621004  RH  017%=      5-min Rain = 0
KTA1 192154Z 19009KT 26/M00 A2984 RMK A01 T02621003  RH  018%=      5-min Rain = 0
KTA1 192155Z 18010KT 26/M00 A2984 RMK A01 T02621003  RH  018%=      5-min Rain = 0
KTA1 192156Z 18012KT 26/M00 A2984 RMK A01 T02621001  RH  018%=      5-min Rain = 0
KTA1 192157Z 19011KT 26/00 A2984 RMK A01 T02620000  RH  018%=      5-min Rain = 0
KTA1 192158Z 18008KT 26/00 A2984 RMK A01 T02610002  RH  018%=      5-min Rain = 0
KTA1 192159Z 18010KT 26/00 A2984 RMK A01 T02610003  RH  018%=      5-min Rain = 0
KTA1 192200Z 19010KT 26/00 A2984 RMK A01 T02630003  RH  018%=      5-min Rain = 0
KTA1 192201Z 19010KT 26/00 A2984 RMK A01 T02620000  RH  018%=      5-min Rain = 0
KTA1 192202Z 19009KT 26/00 A2984 RMK A01 T02630001  RH  018%=      5-min Rain = 0
KTA1 192203Z 19008KT 26/00 A2984 RMK A01 T02630003  RH  018%=      5-min Rain = 0
KTA1 192204Z 18008KT 26/01 A2984 RMK A01 T02640006  RH  019%=      5-min Rain = 0
KTA1 192205Z 18009KT 27/01 A2984 RMK A01 T02650007  RH  019%=      5-min Rain = 0
KTA1 192206Z 19012KT 27/00 A2984 RMK A01 T02660004  RH  018%=      5-min Rain = 0
KTA1 192207Z 18011KT 26/00 A2984 RMK A01 T02640003  RH  018%=      5-min Rain = 0
KTA1 192208Z 18013KT 26/00 A2984 RMK A01 T02630001  RH  018%=      5-min Rain = 0
KTA1 192209Z 18012KT 26/M00 A2984 RMK A01 T02621001  RH  018%=      5-min Rain = 0
KTA1 192210Z 18012KT 26/M00 A2984 RMK A01 T02621001  RH  018%=      5-min Rain = 0
KTA1 192211Z 19011KT 26/00 A2984 RMK A01 T026200-0  RH  018%=      5-min Rain = 0
KTA1 192212Z 20012KT 26/00 A2984 RMK A01 T02610001  RH  018%=      5-min Rain = 0
KTA1 192213Z 19011KT 26/M00 A2984 RMK A01 T02611001  RH  018%=      5-min Rain = 0
KTA1 192214Z 19011KT 26/M00 A2984 RMK A01 T02611001  RH  018%=      5-min Rain = 0
KTA1 192215Z 18013KT 26/00 A2984 RMK A01 T02610001  RH  018%=      5-min Rain = 0
KTA1 192216Z 18010KT 26/00 A2984 RMK A01 T02590000  RH  018%=      5-min Rain = 0
KTA1 192217Z 18012KT 26/00 A2984 RMK A01 T02580001  RH  019%=      5-min Rain = 0
KTA1 192218Z 18012KT 26/00 A2984 RMK A01 T02580000  RH  018%=      5-min Rain = 0
KTA1 192219Z 18012KT 26/00 A2984 RMK A01 T02570000  RH  019%=      5-min Rain = 0
KTA1 192220Z 18012KT 26/00 A2984 RMK A01 T02570001  RH  019%=      5-min Rain = 0
KTA1 192221Z 19010KT 26/00 A2984 RMK A01 T02570002  RH  019%=      5-min Rain = 0
KTA1 192222Z 19010KT 26/00 A2984 RMK A01 T02570003  RH  019%=      5-min Rain = 0
KTA1 192223Z 19009KT 26/00 A2984 RMK A01 T02570004  RH  019%=      5-min Rain = 0
KTA1 192224Z 18010KT 26/01 A2984 RMK A01 T02590005  RH  019%=      5-min Rain = 0
KTA1 192225Z 18009KT 26/00 A2984 RMK A01 T02590003  RH  019%=      5-min Rain = 0
KTA1 192226Z 19010KT 26/00 A2984 RMK A01 T02590004  RH  019%=      5-min Rain = 0
KTA1 192227Z 18010KT 26/01 A2984 RMK A01 T02580005  RH  019%=      5-min Rain = 0
KTA1 192228Z 19008KT 26/01 A2984 RMK A01 T02580005  RH  019%=      5-min Rain = 0
KTA1 192229Z 19009KT 26/01 A2984 RMK A01 T02580005  RH  019%=      5-min Rain = 0
KTA1 192230Z 19009KT 26/01 A2984 RMK A01 T02590006  RH  019%=      5-min Rain = 0
KTA1 192231Z 19008KT 26/01 A2984 RMK A01 T02580005  RH  019%=      5-min Rain = 0
KTA1 192232Z 19005KT 26/01 A2984 RMK A01 T02590007  RH  019%=      5-min Rain = 0
KTA1 192233Z 19008KT 26/01 A2984 RMK A01 T02580008  RH  019%=      5-min Rain = 0
KTA1 192234Z 19008KT 26/01 A2984 RMK A01 T02580007  RH  019%=      5-min Rain = 0
KTA1 192235Z 19009KT 26/01 A2984 RMK A01 T02580005  RH  019%=      5-min Rain = 0
KTA1 192236Z 19007KT 26/01 A2984 RMK A01 T02570005  RH  019%=      5-min Rain = 0
KTA1 192237Z 18008KT 26/01 A2984 RMK A01 T02560006  RH  019%=      5-min Rain = 0
KTA1 192238Z 17008KT 26/01 A2983 RMK A01 T02550006  RH  019%=      5-min Rain = 0
KTA1 192239Z 18007KT 26/01 A2983 RMK A01 T02550006  RH  020%=      5-min Rain = 0
KTA1 192240Z 19007KT 25/01 A2983 RMK A01 T02530007  RH  020%=      5-min Rain = 0
KTA1 192241Z 19008KT 25/01 A2983 RMK A01 T02520007  RH  020%=      5-min Rain = 0
KTA1 192242Z 19009KT 25/01 A2983 RMK A01 T02520007  RH  020%=      5-min Rain = 0
KTA1 192243Z 18010KT 25/01 A2983 RMK A01 T02500005  RH  020%=      5-min Rain = 0
KTA1 192244Z 18009KT 25/01 A2983 RMK A01 T02500005  RH  020%=      5-min Rain = 0
KTA1 192245Z 19008KT 25/00 A2983 RMK A01 T02500004  RH  020%=      5-min Rain = 0
KTA1 192246Z 19008KT 25/01 A2983 RMK A01 T02500006  RH  020%=      5-min Rain = 0
KTA1 192247Z 19008KT 25/01 A2983 RMK A01 T02500005  RH  020%=      5-min Rain = 0
KTA1 192248Z 19007KT 25/01 A2983 RMK A01 T02500006  RH  020%=      5-min Rain = 0
KTA1 192249Z 18008KT 25/01 A2983 RMK A01 T02490006  RH  020%=      5-min Rain = 0
KTA1 192250Z 18007KT 25/01 A2983 RMK A01 T02500007  RH  020%=      5-min Rain = 0
KTA1 192251Z 18006KT 25/01 A2983 RMK A01 T02500008  RH  020%=      5-min Rain = 0
KTA1 192252Z 18007KT 25/01 A2983 RMK A01 T02500008  RH  020%=      5-min Rain = 0
KTA1 192253Z 18007KT 25/01 A2983 RMK A01 T02500009  RH  021%=      5-min Rain = 0
KTA1 192254Z 18007KT 25/01 A2983 RMK A01 T02490009  RH  021%=      5-min Rain = 0
KTA1 192255Z 19006KT 25/01 A2983 RMK A01 T02480009  RH  021%=      5-min Rain = 0
KTA1 192256Z 19007KT 25/01 A2983 RMK A01 T02470009  RH  021%=      5-min Rain = 0
KTA1 192257Z 19006KT 25/01 A2983 RMK A01 T02460009  RH  021%=      5-min Rain = 0
KTA1 192258Z 19007KT 25/01 A2984 RMK A01 T02460010  RH  021%=      5-min Rain = 0
KTA1 192259Z 19008KT 25/01 A2984 RMK A01 T02450010  RH  021%=      5-min Rain = 0
KTA1 192300Z 19008KT 25/01 A2984 RMK A01 T02450010  RH  021%=      5-min Rain = 0
KTA1 192301Z 19008KT 25/01 A2984 RMK A01 T02450010  RH  021%=      5-min Rain = 0
KTA1 192302Z 19008KT 25/01 A2984 RMK A01 T02450010  RH  021%=      5-min Rain = 0
KTA1 192303Z 19007KT 25/01 A2984 RMK A01 T02450009  RH  021%=      5-min Rain = 0
KTA1 192304Z 19007KT 24/01 A2984 RMK A01 T02440010  RH  021%=      5-min Rain = 0
KTA1 192305Z 19008KT 24/01 A2984 RMK A01 T02430010  RH  022%=      5-min Rain = 0
KTA1 192306Z 19008KT 24/01 A2984 RMK A01 T02430008  RH  021%=      5-min Rain = 0
KTA1 192307Z 19007KT 24/01 A2983 RMK A01 T02430008  RH  021%=      5-min Rain = 0
KTA1 192308Z 19007KT 24/01 A2983 RMK A01 T02430007  RH  021%=      5-min Rain = 0
KTA1 192309Z 19008KT 24/01 A2983 RMK A01 T02430007  RH  021%=      5-min Rain = 0
KTA1 192310Z 19007KT 24/01 A2983 RMK A01 T02430007  RH  021%=      5-min Rain = 0
KTA1 192311Z 19008KT 24/01 A2983 RMK A01 T02420007  RH  021%=      5-min Rain = 0
KTA1 192312Z 19008KT 24/01 A2983 RMK A01 T02410006  RH  021%=      5-min Rain = 0
KTA1 192313Z 19008KT 24/01 A2983 RMK A01 T02400006  RH  021%=      5-min Rain = 0
KTA1 192314Z 19008KT 24/01 A2983 RMK A01 T02390006  RH  022%=      5-min Rain = 0
KTA1 192315Z 19008KT 24/01 A2983 RMK A01 T02390006  RH  022%=      5-min Rain = 0
KTA1 192316Z 19008KT 24/01 A2983 RMK A01 T02380007  RH  022%=      5-min Rain = 0
KTA1 192317Z 19008KT 24/01 A2983 RMK A01 T02380006  RH  022%=      5-min Rain = 0
KTA1 192318Z 18008KT 24/01 A2983 RMK A01 T02380006  RH  022%=      5-min Rain = 0
KTA1 192319Z 19009KT 24/01 A2983 RMK A01 T02370005  RH  022%=      5-min Rain = 0
KTA1 192320Z 18008KT 24/01 A2983 RMK A01 T02370005  RH  022%=      5-min Rain = 0
KTA1 192321Z 18007KT 24/01 A2983 RMK A01 T02360005  RH  022%=      5-min Rain = 0
KTA1 192322Z 18007KT 24/01 A2983 RMK A01 T02350005  RH  022%=      5-min Rain = 0
KTA1 192323Z 18007KT 24/01 A2983 RMK A01 T02350005  RH  022%=      5-min Rain = 0
KTA1 192324Z 18006KT 23/01 A2983 RMK A01 T02340005  RH  022%=      5-min Rain = 0
KTA1 192325Z 17005KT 23/01 A2983 RMK A01 T02340006  RH  022%=      5-min Rain = 0
KTA1 192326Z 17005KT 23/01 A2983 RMK A01 T02330006  RH  022%=      5-min Rain = 0
KTA1 192327Z 17005KT 23/01 A2983 RMK A01 T02310007  RH  023%=      5-min Rain = 0
KTA1 192328Z 17005KT 23/01 A2983 RMK A01 T02300008  RH  023%=      5-min Rain = 0
KTA1 192329Z 17006KT 23/01 A2983 RMK A01 T02290008  RH  023%=      5-min Rain = 0
KTA1 192330Z 17007KT 23/01 A2983 RMK A01 T02280008  RH  023%=      5-min Rain = 0
KTA1 192331Z 17006KT 23/01 A2984 RMK A01 T02280008  RH  023%=      5-min Rain = 0
KTA1 192332Z 17007KT 23/01 A2984 RMK A01 T02280009  RH  024%=      5-min Rain = 0
KTA1 192333Z 17008KT 23/01 A2984 RMK A01 T02270009  RH  024%=      5-min Rain = 0
KTA1 192334Z 16008KT 23/01 A2984 RMK A01 T02270009  RH  024%=      5-min Rain = 0
KTA1 192335Z 17008KT 23/01 A2984 RMK A01 T02260009  RH  024%=      5-min Rain = 0
KTA1 192336Z 16008KT 23/01 A2984 RMK A01 T02260010  RH  024%=      5-min Rain = 0
KTA1 192337Z 17007KT 23/01 A2984 RMK A01 T02250010  RH  024%=      5-min Rain = 0
KTA1 192338Z 17008KT 23/01 A2984 RMK A01 T02250010  RH  024%=      5-min Rain = 0
KTA1 192339Z 16008KT 23/01 A2984 RMK A01 T02250010  RH  024%=      5-min Rain = 0
KTA1 192340Z 16008KT 22/01 A2983 RMK A01 T02240011  RH  024%=      5-min Rain = 0
KTA1 192341Z 16008KT 22/01 A2983 RMK A01 T02230011  RH  025%=      5-min Rain = 0
KTA1 192342Z 17008KT 22/01 A2983 RMK A01 T02220011  RH  025%=      5-min Rain = 0
KTA1 192343Z 16008KT 22/01 A2983 RMK A01 T02210011  RH  025%=      5-min Rain = 0
KTA1 192344Z 16009KT 22/01 A2983 RMK A01 T02210011  RH  025%=      5-min Rain = 0
KTA1 192345Z 16009KT 22/01 A2983 RMK A01 T02200012  RH  025%=      5-min Rain = 0
KTA1 192346Z 16008KT 22/01 A2983 RMK A01 T02190012  RH  025%=      5-min Rain = 0
KTA1 192347Z 16009KT 22/01 A2983 RMK A01 T02180012  RH  026%=      5-min Rain = 0
KTA1 192348Z 16009KT 22/01 A2983 RMK A01 T02170013  RH  026%=      5-min Rain = 0
KTA1 192349Z 16009KT 22/01 A2983 RMK A01 T02150013  RH  026%=      5-min Rain = 0
KTA1 192350Z 16009KT 21/01 A2983 RMK A01 T02140013  RH  026%=      5-min Rain = 0
KTA1 192351Z 16009KT 21/01 A2983 RMK A01 T02140013  RH  026%=      5-min Rain = 0
KTA1 192352Z 16008KT 21/01 A2983 RMK A01 T02130014  RH  027%=      5-min Rain = 0
KTA1 192353Z 17008KT 21/01 A2983 RMK A01 T02120014  RH  027%=      5-min Rain = 0
KTA1 192354Z 17008KT 21/01 A2984 RMK A01 T02120014  RH  027%=      5-min Rain = 0
KTA1 192355Z 17007KT 21/01 A2984 RMK A01 T02110014  RH  027%=      5-min Rain = 0
KTA1 192356Z 17008KT 21/01 A2984 RMK A01 T02110014  RH  027%=      5-min Rain = 0
KTA1 192357Z 17008KT 21/02 A2984 RMK A01 T02110015  RH  027%=      5-min Rain = 0
KTA1 192358Z 17008KT 21/02 A2984 RMK A01 T02120015  RH  027%=      5-min Rain = 0
KTA1 192359Z 18007KT 21/02 A2984 RMK A01 T02120015  RH  027%=      5-min Rain = 0
KTA1 200000Z 17008KT 21/02 A2984 RMK A01 T02120015  RH  027%=      5-min Rain = 0
KTA1 200001Z 17008KT 21/02 A2984 RMK A01 T02130015  RH  027%=      5-min Rain = 0
KTA1 200002Z 18008KT 21/02 A2984 RMK A01 T02130016  RH  027%=      5-min Rain = 0
KTA1 200003Z 18008KT 21/02 A2984 RMK A01 T02130016  RH  027%=      5-min Rain = 0
KTA1 200004Z 18008KT 21/02 A2984 RMK A01 T02120016  RH  027%=      5-min Rain = 0
KTA1 200005Z 18007KT 21/02 A2984 RMK A01 T02120015  RH  027%=      5-min Rain = 0
KTA1 200006Z 18007KT 21/02 A2984 RMK A01 T02120015  RH  027%=      5-min Rain = 0
KTA1 200007Z 18007KT 21/02 A2984 RMK A01 T02120015  RH  027%=      5-min Rain = 0
KTA1 200008Z 18007KT 21/02 A2984 RMK A01 T02110015  RH  027%=      5-min Rain = 0
KTA1 200009Z 18007KT 21/02 A2984 RMK A01 T02110015  RH  027%=      5-min Rain = 0
KTA1 200010Z 18008KT 21/02 A2984 RMK A01 T02100015  RH  027%=      5-min Rain = 0
KTA1 200011Z 18008KT 21/02 A2984 RMK A01 T02100015  RH  027%=      5-min Rain = 0
KTA1 200012Z 17007KT 21/02 A2984 RMK A01 T02110016  RH  028%=      5-min Rain = 0
KTA1 200013Z 16008KT 21/02 A2984 RMK A01 T02100016  RH  028%=      5-min Rain = 0
KTA1 200014Z 16008KT 21/02 A2984 RMK A01 T02090015  RH  028%=      5-min Rain = 0
KTA1 200015Z 16008KT 21/02 A2984 RMK A01 T02080016  RH  028%=      5-min Rain = 0
KTA1 200016Z 16008KT 21/02 A2984 RMK A01 T02050016  RH  028%=      5-min Rain = 0
KTA1 200017Z 17007KT 20/02 A2984 RMK A01 T02020016  RH  029%=      5-min Rain = 0
KTA1 200018Z 17007KT 20/02 A2984 RMK A01 T02000016  RH  029%=      5-min Rain = 0
KTA1 200019Z 17007KT 20/02 A2984 RMK A01 T01990016  RH  030%=      5-min Rain = 0
KTA1 200020Z 17008KT 20/02 A2984 RMK A01 T01980016  RH  030%=      5-min Rain = 0
KTA1 200021Z 17008KT 20/02 A2984 RMK A01 T01980017  RH  030%=      5-min Rain = 0
KTA1 200022Z 17009KT 20/02 A2984 RMK A01 T01980017  RH  030%=      5-min Rain = 0
KTA1 200023Z 17009KT 20/02 A2984 RMK A01 T01990016  RH  030%=      5-min Rain = 0
KTA1 200024Z 16008KT 20/02 A2984 RMK A01 T02000016  RH  029%=      5-min Rain = 0
KTA1 200025Z 16008KT 20/02 A2984 RMK A01 T02010016  RH  029%=      5-min Rain = 0
KTA1 200026Z 16008KT 20/02 A2984 RMK A01 T02000016  RH  029%=      5-min Rain = 0
KTA1 200027Z 16009KT 20/02 A2984 RMK A01 T01980016  RH  030%=      5-min Rain = 0
KTA1 200028Z 16008KT 20/02 A2984 RMK A01 T01960016  RH  030%=      5-min Rain = 0
KTA1 200029Z 16008KT 20/02 A2984 RMK A01 T01950017  RH  030%=      5-min Rain = 0
KTA1 200030Z 16008KT 19/02 A2984 RMK A01 T01940018  RH  031%=      5-min Rain = 0
KTA1 200031Z 16008KT 19/02 A2984 RMK A01 T01940019  RH  031%=      5-min Rain = 0
KTA1 200032Z 15009KT 19/02 A2984 RMK A01 T01930020  RH  031%=      5-min Rain = 0
KTA1 200033Z 16008KT 19/02 A2984 RMK A01 T01930021  RH  032%=      5-min Rain = 0
KTA1 200034Z 16008KT 19/02 A2984 RMK A01 T01930023  RH  032%=      5-min Rain = 0
KTA1 200035Z 16009KT 19/02 A2984 RMK A01 T01930024  RH  032%=      5-min Rain = 0
KTA1 200036Z 16009KT 19/03 A2984 RMK A01 T01930025  RH  033%=      5-min Rain = 0
KTA1 200037Z 15009KT 19/03 A2984 RMK A01 T01920025  RH  033%=      5-min Rain = 0
KTA1 200038Z 15009KT 19/03 A2984 RMK A01 T01920027  RH  033%=      5-min Rain = 0
KTA1 200039Z 15009KT 19/03 A2984 RMK A01 T01910028  RH  034%=      5-min Rain = 0
KTA1 200040Z 15009KT 19/03 A2984 RMK A01 T01910029  RH  034%=      5-min Rain = 0
KTA1 200041Z 16009KT 19/03 A2984 RMK A01 T01900030  RH  035%=      5-min Rain = 0
KTA1 200042Z 15009KT 19/03 A2984 RMK A01 T01890032  RH  035%=      5-min Rain = 0
KTA1 200043Z 15009KT 19/03 A2984 RMK A01 T01890034  RH  036%=      5-min Rain = 0
KTA1 200044Z 16009KT 19/04 A2984 RMK A01 T01890036  RH  036%=      5-min Rain = 0
KTA1 200045Z 16009KT 19/04 A2984 RMK A01 T01900037  RH  036%=      5-min Rain = 0
KTA1 200046Z 16008KT 19/04 A2984 RMK A01 T01900038  RH  036%=      5-min Rain = 0
KTA1 200047Z 16008KT 19/04 A2984 RMK A01 T01900039  RH  037%=      5-min Rain = 0
KTA1 200048Z 16009KT 19/04 A2984 RMK A01 T01900039  RH  037%=      5-min Rain = 0
KTA1 200049Z 16009KT 19/04 A2984 RMK A01 T01890040  RH  037%=      5-min Rain = 0
KTA1 200050Z 16009KT 19/04 A2984 RMK A01 T01890040  RH  037%=      5-min Rain = 0
KTA1 200051Z 16009KT 19/04 A2984 RMK A01 T01890040  RH  037%=      5-min Rain = 0
KTA1 200052Z 16009KT 19/04 A2984 RMK A01 T01890040  RH  037%=      5-min Rain = 0
KTA1 200053Z 16009KT 19/04 A2984 RMK A01 T01890041  RH  038%=      5-min Rain = 0
KTA1 200054Z 16010KT 19/04 A2984 RMK A01 T01890042  RH  038%=      5-min Rain = 0
KTA1 200055Z 16009KT 19/04 A2984 RMK A01 T01900043  RH  038%=      5-min Rain = 0
KTA1 200056Z 16010KT 19/04 A2984 RMK A01 T01900044  RH  038%=      5-min Rain = 0
KTA1 200057Z 16009KT 19/05 A2985 RMK A01 T01900045  RH  038%=      5-min Rain = 0
KTA1 200058Z 16010KT 19/05 A2985 RMK A01 T01900046  RH  038%=      5-min Rain = 0
KTA1 200059Z 16010KT 19/05 A2985 RMK A01 T01910047  RH  039%=      5-min Rain = 0
KTA1 200100Z 16010KT 19/05 A2985 RMK A01 T01920048  RH  039%=      5-min Rain = 0
KTA1 200101Z 16010KT 19/05 A2985 RMK A01 T01930049  RH  039%=      5-min Rain = 0
KTA1 200102Z 16010KT 19/05 A2985 RMK A01 T01930050  RH  039%=      5-min Rain = 0
KTA1 200103Z 16010KT 19/05 A2985 RMK A01 T01940050  RH  039%=      5-min Rain = 0
KTA1 200104Z 16010KT 19/05 A2985 RMK A01 T01940051  RH  039%=      5-min Rain = 0
KTA1 200105Z 16010KT 19/05 A2985 RMK A01 T01940051  RH  039%=      5-min Rain = 0
KTA1 200106Z 16011KT 19/05 A2985 RMK A01 T01940052  RH  039%=      5-min Rain = 0
KTA1 200107Z 16010KT 19/05 A2985 RMK A01 T01940052  RH  039%=      5-min Rain = 0
KTA1 200108Z 16011KT 19/05 A2985 RMK A01 T01940053  RH  039%=      5-min Rain = 0
KTA1 200109Z 16012KT 20/05 A2985 RMK A01 T01950054  RH  040%=      5-min Rain = 0
KTA1 200110Z 16011KT 20/06 A2985 RMK A01 T01950055  RH  040%=      5-min Rain = 0
KTA1 200111Z 16011KT 20/06 A2985 RMK A01 T01960055  RH  040%=      5-min Rain = 0
KTA1 200112Z 16013KT 20/06 A2985 RMK A01 T01960056  RH  040%=      5-min Rain = 0
KTA1 200113Z 16013KT 20/06 A2985 RMK A01 T01970056  RH  040%=      5-min Rain = 0
KTA1 200114Z 17012KT 20/06 A2985 RMK A01 T01970057  RH  040%=      5-min Rain = 0
KTA1 200115Z 16014KT 20/06 A2985 RMK A01 T01980058  RH  040%=      5-min Rain = 0
KTA1 200116Z 16012KT 20/06 A2985 RMK A01 T01990059  RH  040%=      5-min Rain = 0
KTA1 200117Z 17012KT 20/06 A2985 RMK A01 T01990059  RH  040%=      5-min Rain = 0
KTA1 200118Z 16011KT 20/06 A2985 RMK A01 T01990060  RH  040%=      5-min Rain = 0
KTA1 200119Z 17012KT 20/06 A2985 RMK A01 T01990061  RH  040%=      5-min Rain = 0
KTA1 200120Z 16012KT 20/06 A2985 RMK A01 T01990061  RH  040%=      5-min Rain = 0
KTA1 200121Z 16013KT 20/06 A2985 RMK A01 T01990062  RH  041%=      5-min Rain = 0
KTA1 200122Z 17013KT 20/06 A2985 RMK A01 T01990062  RH  041%=      5-min Rain = 0
KTA1 200123Z 17012KT 20/06 A2985 RMK A01 T01990062  RH  041%=      5-min Rain = 0
KTA1 200124Z 17010KT 20/06 A2985 RMK A01 T01990062  RH  041%=      5-min Rain = 0
KTA1 200125Z 16009KT 20/06 A2985 RMK A01 T01990063  RH  041%=      5-min Rain = 0
KTA1 200126Z 17011KT 20/06 A2985 RMK A01 T01980063  RH  041%=      5-min Rain = 0
KTA1 200127Z 17011KT 20/06 A2985 RMK A01 T01980063  RH  041%=      5-min Rain = 0
KTA1 200128Z 17010KT 20/06 A2985 RMK A01 T01980063  RH  042%=      5-min Rain = 0
KTA1 200129Z 17010KT 20/06 A2985 RMK A01 T01970063  RH  042%=      5-min Rain = 0
KTA1 200130Z 16013KT 20/06 A2985 RMK A01 T01960064  RH  042%=      5-min Rain = 0
KTA1 200131Z 17011KT 20/06 A2985 RMK A01 T01970064  RH  042%=      5-min Rain = 0
KTA1 200132Z 17011KT 20/06 A2985 RMK A01 T01970064  RH  042%=      5-min Rain = 0
KTA1 200133Z 17010KT 20/07 A2985 RMK A01 T01970065  RH  042%=      5-min Rain = 0
KTA1 200134Z 17011G16KT 20/07 A2985 RMK A01 T01970065  RH  042%=      5-min Rain = 0
KTA1 200135Z 17011KT 20/07 A2985 RMK A01 T01970065  RH  042%=      5-min Rain = 0
KTA1 200136Z 17010KT 20/07 A2985 RMK A01 T01970065  RH  042%=      5-min Rain = 0
KTA1 200137Z 17009KT 20/07 A2985 RMK A01 T01970066  RH  042%=      5-min Rain = 0
KTA1 200138Z 17009KT 20/07 A2985 RMK A01 T01960066  RH  043%=      5-min Rain = 0
KTA1 200139Z 17011KT 20/07 A2985 RMK A01 T01960066  RH  043%=      5-min Rain = 0
KTA1 200140Z 17011KT 20/07 A2985 RMK A01 T01960066  RH  043%=      5-min Rain = 0
KTA1 200141Z 17012KT 20/07 A2985 RMK A01 T01970066  RH  043%=      5-min Rain = 0
KTA1 200142Z 17012KT 20/07 A2985 RMK A01 T01970067  RH  043%=      5-min Rain = 0
KTA1 200143Z 17014KT 20/07 A2985 RMK A01 T01980067  RH  042%=      5-min Rain = 0
KTA1 200144Z 16011KT 20/07 A2985 RMK A01 T01980066  RH  042%=      5-min Rain = 0
KTA1 200145Z 16010KT 20/07 A2985 RMK A01 T01980066  RH  042%=      5-min Rain = 0
KTA1 200146Z 16010KT 20/07 A2985 RMK A01 T01970067  RH  043%=      5-min Rain = 0
KTA1 200147Z 16012KT 20/07 A2985 RMK A01 T01960066  RH  043%=      5-min Rain = 0
KTA1 200148Z 16011KT 20/07 A2985 RMK A01 T01950066  RH  043%=      5-min Rain = 0
KTA1 200149Z 16011KT 20/07 A2985 RMK A01 T01950066  RH  043%=      5-min Rain = 0
KTA1 200150Z 16011KT 19/07 A2985 RMK A01 T01940066  RH  043%=      5-min Rain = 0
KTA1 200151Z 16011KT 19/07 A2985 RMK A01 T01930066  RH  044%=      5-min Rain = 0
KTA1 200152Z 16011KT 19/07 A2985 RMK A01 T01930066  RH  044%=      5-min Rain = 0
KTA1 200153Z 16010KT 19/07 A2985 RMK A01 T01930067  RH  044%=      5-min Rain = 0
KTA1 200154Z 16010KT 19/07 A2985 RMK A01 T01920067  RH  044%=      5-min Rain = 0
KTA1 200155Z 16012KT 19/07 A2985 RMK A01 T01920067  RH  044%=      5-min Rain = 0
KTA1 200156Z 16013KT 19/07 A2985 RMK A01 T01920067  RH  044%=      5-min Rain = 0
KTA1 200157Z 17011KT 19/07 A2985 RMK A01 T01920067  RH  044%=      5-min Rain = 0
KTA1 200158Z 16010KT 19/07 A2985 RMK A01 T01920067  RH  044%=      5-min Rain = 0
KTA1 200159Z 16012KT 19/07 A2985 RMK A01 T01920067  RH  044%=      5-min Rain = 0
KTA1 200200Z 16010KT 19/07 A2985 RMK A01 T01910067  RH  044%=      5-min Rain = 0
KTA1 200201Z 16011KT 19/07 A2985 RMK A01 T01910067  RH  044%=      5-min Rain = 0
KTA1 200202Z 17012KT 19/07 A2985 RMK A01 T01910067  RH  044%=      5-min Rain = 0
KTA1 200203Z 17011KT 19/07 A2986 RMK A01 T01910067  RH  045%=      5-min Rain = 0
KTA1 200204Z 17009KT 19/07 A2986 RMK A01 T01910067  RH  044%=      5-min Rain = 0
KTA1 200205Z 17009KT 19/07 A2986 RMK A01 T01910068  RH  045%=      5-min Rain = 0
KTA1 200206Z 17010KT 19/07 A2986 RMK A01 T01900068  RH  045%=      5-min Rain = 0
KTA1 200207Z 17010KT 19/07 A2986 RMK A01 T01900068  RH  045%=      5-min Rain = 0
KTA1 200208Z 17011G16KT 19/07 A2985 RMK A01 T01900068  RH  045%=      5-min Rain = 0
KTA1 200209Z 16010KT 19/07 A2985 RMK A01 T01910068  RH  045%=      5-min Rain = 0
KTA1 200210Z 17011KT 19/07 A2985 RMK A01 T01910068  RH  045%=      5-min Rain = 0
KTA1 200211Z 17010KT 19/07 A2985 RMK A01 T01910068  RH  045%=      5-min Rain = 0
KTA1 200212Z 17009KT 19/07 A2985 RMK A01 T01900068  RH  045%=      5-min Rain = 0
KTA1 200213Z 16011KT 19/07 A2985 RMK A01 T01890068  RH  045%=      5-min Rain = 0
KTA1 200214Z 17010KT 19/07 A2985 RMK A01 T01890068  RH  045%=      5-min Rain = 0
KTA1 200215Z 16011KT 19/07 A2985 RMK A01 T01890068  RH  045%=      5-min Rain = 0
KTA1 200216Z 16011KT 19/07 A2985 RMK A01 T01890069  RH  046%=      5-min Rain = 0
KTA1 200217Z 16010KT 19/07 A2985 RMK A01 T01890069  RH  046%=      5-min Rain = 0
KTA1 200218Z 16011KT 19/07 A2985 RMK A01 T01890069  RH  046%=      5-min Rain = 0
KTA1 200219Z 16011KT 19/07 A2985 RMK A01 T01880069  RH  046%=      5-min Rain = 0
KTA1 200220Z 16011KT 19/07 A2985 RMK A01 T01880069  RH  046%=      5-min Rain = 0
KTA1 200221Z 16013KT 19/07 A2985 RMK A01 T01880069  RH  046%=      5-min Rain = 0
KTA1 200222Z 16011KT 19/07 A2985 RMK A01 T01890069  RH  046%=      5-min Rain = 0
KTA1 200223Z 16011KT 19/07 A2985 RMK A01 T01880069  RH  046%=      5-min Rain = 0
KTA1 200224Z 16013KT 19/07 A2985 RMK A01 T01880069  RH  046%=      5-min Rain = 0
KTA1 200225Z 16012KT 19/07 A2985 RMK A01 T01880069  RH  046%=      5-min Rain = 0
KTA1 200226Z 17012KT 19/07 A2985 RMK A01 T01880069  RH  046%=      5-min Rain = 0
KTA1 200227Z 17011KT 19/07 A2985 RMK A01 T01880070  RH  046%=      5-min Rain = 0
KTA1 200228Z 16011KT 19/07 A2985 RMK A01 T01880070  RH  046%=      5-min Rain = 0
KTA1 200229Z 16012KT 19/07 A2985 RMK A01 T01880070  RH  046%=      5-min Rain = 0
KTA1 200230Z 16012KT 19/07 A2985 RMK A01 T01870070  RH  046%=      5-min Rain = 0
KTA1 200231Z 17011KT 19/07 A2985 RMK A01 T01870070  RH  046%=      5-min Rain = 0
KTA1 200232Z 16011KT 19/07 A2986 RMK A01 T01870070  RH  047%=      5-min Rain = 0
KTA1 200233Z 16012KT 19/07 A2985 RMK A01 T01870070  RH  047%=      5-min Rain = 0
KTA1 200234Z 16011KT 19/07 A2986 RMK A01 T01870070  RH  047%=      5-min Rain = 0
KTA1 200235Z 16013KT 19/07 A2986 RMK A01 T01870071  RH  047%=      5-min Rain = 0
KTA1 200236Z 16012KT 19/07 A2986 RMK A01 T01870071  RH  047%=      5-min Rain = 0
KTA1 200237Z 16011KT 19/07 A2986 RMK A01 T01870071  RH  047%=      5-min Rain = 0
KTA1 200238Z 16011KT 19/07 A2986 RMK A01 T01860070  RH  047%=      5-min Rain = 0
KTA1 200239Z 16010KT 19/07 A2986 RMK A01 T01850070  RH  047%=      5-min Rain = 0
KTA1 200240Z 16013G18KT 18/07 A2986 RMK A01 T01840071  RH  047%=      5-min Rain = 0
KTA1 200241Z 16012KT 18/07 A2986 RMK A01 T01840071  RH  047%=      5-min Rain = 0
KTA1 200242Z 16011KT 18/07 A2986 RMK A01 T01840071  RH  047%=      5-min Rain = 0
KTA1 200243Z 16010KT 18/07 A2986 RMK A01 T01840071  RH  048%=      5-min Rain = 0
KTA1 200244Z 16012KT 18/07 A2986 RMK A01 T01830071  RH  048%=      5-min Rain = 0
KTA1 200245Z 16013KT 18/07 A2986 RMK A01 T01820070  RH  048%=      5-min Rain = 0
KTA1 200246Z 16011KT 18/07 A2986 RMK A01 T01830071  RH  048%=      5-min Rain = 0
KTA1 200247Z 16012KT 18/07 A2986 RMK A01 T01820071  RH  048%=      5-min Rain = 0
KTA1 200248Z 16011KT 18/07 A2986 RMK A01 T01820071  RH  048%=      5-min Rain = 0
KTA1 200249Z 16011G16KT 18/07 A2986 RMK A01 T01820071  RH  048%=      5-min Rain = 0
KTA1 200250Z 16012KT 18/07 A2986 RMK A01 T01810071  RH  048%=      5-min Rain = 0
KTA1 200251Z 16010KT 18/07 A2986 RMK A01 T01810071  RH  048%=      5-min Rain = 0
KTA1 200252Z 16011KT 18/07 A2986 RMK A01 T01800071  RH  049%=      5-min Rain = 0
KTA1 200253Z 16011KT 18/07 A2986 RMK A01 T01800071  RH  049%=      5-min Rain = 0
KTA1 200254Z 16011KT 18/07 A2986 RMK A01 T01790071  RH  049%=      5-min Rain = 0
KTA1 200255Z 16010KT 18/07 A2986 RMK A01 T01790071  RH  049%=      5-min Rain = 0
KTA1 200256Z 16010KT 18/07 A2986 RMK A01 T01780071  RH  049%=      5-min Rain = 0
KTA1 200257Z 16011KT 18/07 A2986 RMK A01 T01780071  RH  050%=      5-min Rain = 0
KTA1 200258Z 16011KT 18/07 A2986 RMK A01 T01770071  RH  050%=      5-min Rain = 0
KTA1 200259Z 16011KT 18/07 A2986 RMK A01 T01770071  RH  050%=      5-min Rain = 0
KTA1 200300Z 16013KT 18/07 A2986 RMK A01 T01770071  RH  050%=      5-min Rain = 0
KTA1 200301Z 16014KT 18/07 A2986 RMK A01 T01770071  RH  050%=      5-min Rain = 0
KTA1 200302Z 16013KT 18/07 A2986 RMK A01 T01780071  RH  050%=      5-min Rain = 0
KTA1 200303Z 16013KT 18/07 A2986 RMK A01 T01790072  RH  050%=      5-min Rain = 0
KTA1 200304Z 16012KT 18/07 A2986 RMK A01 T01790072  RH  049%=      5-min Rain = 0
KTA1 200305Z 16012KT 18/07 A2986 RMK A01 T01790072  RH  050%=      5-min Rain = 0
KTA1 200306Z 16012KT 18/07 A2986 RMK A01 T01780072  RH  050%=      5-min Rain = 0
KTA1 200307Z 16013KT 18/07 A2986 RMK A01 T01780072  RH  050%=      5-min Rain = 0
KTA1 200308Z 16011KT 18/07 A2986 RMK A01 T01780072  RH  050%=      5-min Rain = 0
KTA1 200309Z 16013G18KT 18/07 A2986 RMK A01 T01780073  RH  050%=      5-min Rain = 0
KTA1 200310Z 16013KT 18/07 A2986 RMK A01 T01780072  RH  050%=      5-min Rain = 0
KTA1 200311Z 16012KT 18/07 A2986 RMK A01 T01790073  RH  050%=      5-min Rain = 0
KTA1 200312Z 16013KT 18/07 A2986 RMK A01 T01780073  RH  050%=      5-min Rain = 0
KTA1 200313Z 16013KT 18/07 A2986 RMK A01 T01780073  RH  050%=      5-min Rain = 0
KTA1 200314Z 16011KT 18/07 A2986 RMK A01 T01780073  RH  050%=      5-min Rain = 0
KTA1 200315Z 16011KT 18/07 A2986 RMK A01 T01770073  RH  050%=      5-min Rain = 0
KTA1 200316Z 16013G18KT 18/07 A2986 RMK A01 T01770074  RH  051%=      5-min Rain = 0
KTA1 200317Z 16012KT 18/07 A2986 RMK A01 T01770074  RH  051%=      5-min Rain = 0
KTA1 200318Z 16013KT 18/07 A2986 RMK A01 T01770074  RH  051%=      5-min Rain = 0
KTA1 200319Z 16013KT 18/07 A2986 RMK A01 T01760074  RH  051%=      5-min Rain = 0
KTA1 200320Z 16013KT 18/07 A2986 RMK A01 T01760074  RH  051%=      5-min Rain = 0
KTA1 200321Z 16013KT 18/07 A2986 RMK A01 T01760074  RH  051%=      5-min Rain = 0
KTA1 200322Z 16013KT 18/08 A2986 RMK A01 T01760075  RH  051%=      5-min Rain = 0
KTA1 200323Z 16012KT 18/08 A2986 RMK A01 T01760075  RH  051%=      5-min Rain = 0
KTA1 200324Z 16013KT 18/08 A2986 RMK A01 T01760075  RH  052%=      5-min Rain = 0
KTA1 200325Z 17014KT 18/08 A2986 RMK A01 T01760076  RH  052%=      5-min Rain = 0
KTA1 200326Z 17014KT 18/08 A2986 RMK A01 T01760076  RH  052%=      5-min Rain = 0
KTA1 200327Z 16012KT 18/08 A2986 RMK A01 T01770077  RH  052%=      5-min Rain = 0
KTA1 200328Z 17012KT 18/08 A2986 RMK A01 T01770077  RH  052%=      5-min Rain = 0
KTA1 200329Z 17013G18KT 18/08 A2986 RMK A01 T01770077  RH  052%=      5-min Rain = 0
KTA1 200330Z 16013KT 18/08 A2986 RMK A01 T01770078  RH  052%=      5-min Rain = 0
KTA1 200331Z 17011KT 18/08 A2986 RMK A01 T01770078  RH  052%=      5-min Rain = 0
KTA1 200332Z 16014KT 18/08 A2986 RMK A01 T01770078  RH  052%=      5-min Rain = 0
KTA1 200333Z 16014KT 18/08 A2986 RMK A01 T01770078  RH  052%=      5-min Rain = 0
KTA1 200334Z 17013KT 18/08 A2986 RMK A01 T01770078  RH  052%=      5-min Rain = 0
KTA1 200335Z 17011KT 18/08 A2986 RMK A01 T01770078  RH  052%=      5-min Rain = 0
KTA1 200336Z 17011KT 18/08 A2986 RMK A01 T01760079  RH  053%=      5-min Rain = 0
KTA1 200337Z 17012KT 18/08 A2986 RMK A01 T01760079  RH  053%=      5-min Rain = 0
KTA1 200338Z 17011KT 18/08 A2986 RMK A01 T01760079  RH  053%=      5-min Rain = 0
KTA1 200339Z 17011KT 18/08 A2986 RMK A01 T01760080  RH  053%=      5-min Rain = 0
KTA1 200340Z 17011KT 18/08 A2986 RMK A01 T01760080  RH  053%=      5-min Rain = 0
KTA1 200341Z 17010KT 18/08 A2986 RMK A01 T01750080  RH  053%=      5-min Rain = 0
KTA1 200342Z 17012G17KT 18/08 A2986 RMK A01 T01750080  RH  054%=      5-min Rain = 0
KTA1 200343Z 17012KT 18/08 A2986 RMK A01 T01750081  RH  054%=      5-min Rain = 0
KTA1 200344Z 17012G17KT 18/08 A2986 RMK A01 T01750081  RH  054%=      5-min Rain = 0
KTA1 200345Z 16013KT 18/08 A2986 RMK A01 T01750081  RH  054%=      5-min Rain = 0
KTA1 200346Z 17013KT 18/08 A2986 RMK A01 T01750081  RH  054%=      5-min Rain = 0
KTA1 200347Z 17014G19KT 17/08 A2986 RMK A01 T01740082  RH  054%=      5-min Rain = 0
KTA1 200348Z 17015KT 17/08 A2986 RMK A01 T01740082  RH  055%=      5-min Rain = 0
KTA1 200349Z 17014KT 17/08 A2986 RMK A01 T01740082  RH  055%=      5-min Rain = 0
KTA1 200350Z 17013KT 18/08 A2986 RMK A01 T01750082  RH  055%=      5-min Rain = 0
KTA1 200351Z 17013KT 17/08 A2986 RMK A01 T01740082  RH  055%=      5-min Rain = 0
KTA1 200352Z 17014KT 17/08 A2986 RMK A01 T01740082  RH  055%=      5-min Rain = 0
KTA1 200353Z 17014KT 17/08 A2986 RMK A01 T01740083  RH  055%=      5-min Rain = 0
KTA1 200354Z 17014KT 17/08 A2986 RMK A01 T01730083  RH  055%=      5-min Rain = 0
KTA1 200355Z 17015KT 17/08 A2986 RMK A01 T01730083  RH  055%=      5-min Rain = 0
KTA1 200356Z 17014KT 17/08 A2986 RMK A01 T01730084  RH  056%=      5-min Rain = 0
KTA1 200357Z 17014KT 17/08 A2986 RMK A01 T01730084  RH  056%=      5-min Rain = 0
KTA1 200358Z 17016KT 17/09 A2986 RMK A01 T01730085  RH  056%=      5-min Rain = 0
KTA1 200359Z 17014KT 17/09 A2986 RMK A01 T01740085  RH  056%=      5-min Rain = 0
KTA1 200400Z 17014KT 17/09 A2986 RMK A01 T01730085  RH  056%=      5-min Rain = 0
KTA1 200401Z 17015KT 17/09 A2986 RMK A01 T01730085  RH  056%=      5-min Rain = 0
KTA1 200402Z 17016KT 17/09 A2986 RMK A01 T01730086  RH  056%=      5-min Rain = 0
KTA1 200403Z 17015KT 17/09 A2986 RMK A01 T01730086  RH  057%=      5-min Rain = 0
KTA1 200404Z 17015KT 17/09 A2986 RMK A01 T01740087  RH  057%=      5-min Rain = 0
KTA1 200405Z 17015KT 17/09 A2986 RMK A01 T01730087  RH  057%=      5-min Rain = 0
KTA1 200406Z 17015KT 17/09 A2986 RMK A01 T01730087  RH  057%=      5-min Rain = 0
KTA1 200407Z 17013KT 17/09 A2986 RMK A01 T01730087  RH  057%=      5-min Rain = 0
KTA1 200408Z 17015KT 17/09 A2986 RMK A01 T01720087  RH  057%=      5-min Rain = 0
KTA1 200409Z 17017KT 17/09 A2986 RMK A01 T01720088  RH  058%=      5-min Rain = 0
KTA1 200410Z 17014KT 17/09 A2986 RMK A01 T01720088  RH  058%=      5-min Rain = 0
KTA1 200411Z 17013KT 17/09 A2986 RMK A01 T01720088  RH  058%=      5-min Rain = 0
KTA1 200412Z 17016KT 17/09 A2986 RMK A01 T01720089  RH  058%=      5-min Rain = 0
KTA1 200413Z 17017KT 17/09 A2986 RMK A01 T01710089  RH  058%=      5-min Rain = 0
KTA1 200414Z 18016KT 17/09 A2986 RMK A01 T01720089  RH  058%=      5-min Rain = 0
KTA1 200415Z 18014G19KT 17/09 A2986 RMK A01 T01720090  RH  058%=      5-min Rain = 0
KTA1 200416Z 18014KT 17/09 A2986 RMK A01 T01720090  RH  058%=      5-min Rain = 0
KTA1 200417Z 18013KT 17/09 A2986 RMK A01 T01720090  RH  059%=      5-min Rain = 0
KTA1 200418Z 18013KT 17/09 A2986 RMK A01 T01720090  RH  059%=      5-min Rain = 0
KTA1 200419Z 18013KT 17/09 A2986 RMK A01 T01710091  RH  059%=      5-min Rain = 0
KTA1 200420Z 18015KT 17/09 A2986 RMK A01 T01710091  RH  059%=      5-min Rain = 0
KTA1 200421Z 18015KT 17/09 A2986 RMK A01 T01710091  RH  059%=      5-min Rain = 0
KTA1 200422Z 18013KT 17/09 A2986 RMK A01 T01720092  RH  059%=      5-min Rain = 0
KTA1 200423Z 18014KT 17/09 A2986 RMK A01 T01720092  RH  059%=      5-min Rain = 0
KTA1 200424Z 18014KT 17/09 A2986 RMK A01 T01720092  RH  059%=      5-min Rain = 0
KTA1 200425Z 18012KT 17/09 A2986 RMK A01 T01720092  RH  059%=      5-min Rain = 0
KTA1 200426Z 18013KT 17/09 A2986 RMK A01 T01720092  RH  060%=      5-min Rain = 0
KTA1 200427Z 18015KT 17/09 A2986 RMK A01 T01720093  RH  060%=      5-min Rain = 0
KTA1 200428Z 18016KT 17/09 A2986 RMK A01 T01720093  RH  060%=      5-min Rain = 0
KTA1 200429Z 18015KT 17/09 A2986 RMK A01 T01720093  RH  060%=      5-min Rain = 0
KTA1 200430Z 18017KT 17/09 A2986 RMK A01 T01720093  RH  060%=      5-min Rain = 0
KTA1 200431Z 18015KT 17/09 A2986 RMK A01 T01720094  RH  060%=      5-min Rain = 0
KTA1 200432Z 18014KT 17/09 A2987 RMK A01 T01720093  RH  060%=      5-min Rain = 0
KTA1 200433Z 18015KT 17/09 A2987 RMK A01 T01710093  RH  060%=      5-min Rain = 0
KTA1 200434Z 18016G21KT 17/09 A2987 RMK A01 T01710094  RH  060%=      5-min Rain = 0
KTA1 200435Z 18016KT 17/09 A2987 RMK A01 T01710094  RH  060%=      5-min Rain = 0
KTA1 200436Z 18015KT 17/09 A2987 RMK A01 T01710094  RH  060%=      5-min Rain = 0
KTA1 200437Z 18015KT 17/09 A2987 RMK A01 T01710094  RH  060%=      5-min Rain = 0
KTA1 200438Z 18017KT 17/09 A2987 RMK A01 T01710094  RH  061%=      5-min Rain = 0
KTA1 200439Z 18016KT 17/09 A2987 RMK A01 T01710094  RH  061%=      5-min Rain = 0
KTA1 200440Z 18015G20KT 17/09 A2987 RMK A01 T01710094  RH  061%=      5-min Rain = 0
KTA1 200441Z 18014KT 17/09 A2987 RMK A01 T01710094  RH  061%=      5-min Rain = 0
KTA1 200442Z 18015KT 17/10 A2987 RMK A01 T01710095  RH  061%=      5-min Rain = 0
KTA1 200443Z 18013KT 17/10 A2987 RMK A01 T01710095  RH  061%=      5-min Rain = 0
KTA1 200444Z 18014KT 17/10 A2987 RMK A01 T01710095  RH  061%=      5-min Rain = 0
KTA1 200445Z 18015KT 17/10 A2986 RMK A01 T01710095  RH  061%=      5-min Rain = 0
KTA1 200446Z 18012G17KT 17/10 A2986 RMK A01 T01710096  RH  061%=      5-min Rain = 0
KTA1 200447Z 18011G16KT 17/10 A2986 RMK A01 T01710095  RH  061%=      5-min Rain = 0
KTA1 200448Z 18012KT 17/10 A2986 RMK A01 T01710096  RH  061%=      5-min Rain = 0
KTA1 200449Z 17012KT 17/10 A2986 RMK A01 T01700095  RH  061%=      5-min Rain = 0
KTA1 200450Z 17013KT 17/10 A2986 RMK A01 T01700096  RH  062%=      5-min Rain = 0
KTA1 200451Z 17013KT 17/10 A2986 RMK A01 T01700096  RH  062%=      5-min Rain = 0
KTA1 200452Z 18010KT 17/10 A2987 RMK A01 T01690096  RH  062%=      5-min Rain = 0
KTA1 200453Z 18011KT 17/10 A2987 RMK A01 T01690096  RH  062%=      5-min Rain = 0
KTA1 200454Z 18010KT 17/10 A2987 RMK A01 T01690097  RH  062%=      5-min Rain = 0
KTA1 200455Z 18012KT 17/10 A2987 RMK A01 T01690097  RH  062%=      5-min Rain = 0
KTA1 200456Z 18012KT 17/10 A2986 RMK A01 T01690096  RH  062%=      5-min Rain = 0
KTA1 200457Z 18012KT 17/10 A2987 RMK A01 T01690096  RH  062%=      5-min Rain = 0
KTA1 200458Z 18014KT 17/10 A2987 RMK A01 T01690097  RH  062%=      5-min Rain = 0
KTA1 200459Z 18015KT 17/10 A2987 RMK A01 T01690097  RH  062%=      5-min Rain = 0
KTA1 200500Z 18013KT 17/10 A2987 RMK A01 T01700097  RH  062%=      5-min Rain = 0
KTA1 200501Z 18015KT 17/10 A2987 RMK A01 T01700097  RH  062%=      5-min Rain = 0
KTA1 200502Z 18014KT 17/10 A2987 RMK A01 T01690097  RH  062%=      5-min Rain = 0
KTA1 200503Z 18014KT 17/10 A2987 RMK A01 T01700098  RH  063%=      5-min Rain = 0
KTA1 200504Z 18014KT 17/10 A2987 RMK A01 T01690097  RH  063%=      5-min Rain = 0
KTA1 200505Z 18015KT 17/10 A2987 RMK A01 T01690097  RH  063%=      5-min Rain = 0
KTA1 200506Z 18013KT 17/10 A2987 RMK A01 T01680097  RH  063%=      5-min Rain = 0
KTA1 200507Z 18013KT 17/10 A2987 RMK A01 T01690098  RH  063%=      5-min Rain = 0
KTA1 200508Z 18012KT 17/10 A2987 RMK A01 T01680097  RH  063%=      5-min Rain = 0
KTA1 200509Z 18015KT 17/10 A2987 RMK A01 T01680098  RH  063%=      5-min Rain = 0
KTA1 200510Z 18013KT 17/10 A2987 RMK A01 T01690098  RH  063%=      5-min Rain = 0
KTA1 200511Z 18015KT 17/10 A2987 RMK A01 T01680098  RH  063%=      5-min Rain = 0
KTA1 200512Z 18012KT 17/10 A2987 RMK A01 T01680098  RH  063%=      5-min Rain = 0
KTA1 200513Z 18014KT 17/10 A2987 RMK A01 T01680098  RH  063%=      5-min Rain = 0
KTA1 200514Z 18015KT 17/10 A2987 RMK A01 T01680098  RH  063%=      5-min Rain = 0
KTA1 200515Z 18013KT 17/10 A2987 RMK A01 T01680098  RH  063%=      5-min Rain = 0
KTA1 200516Z 18014KT 17/10 A2987 RMK A01 T01680098  RH  063%=      5-min Rain = 0
KTA1 200517Z 18014KT 17/10 A2987 RMK A01 T01680098  RH  063%=      5-min Rain = 0
KTA1 200518Z 18014KT 17/10 A2987 RMK A01 T01690099  RH  063%=      5-min Rain = 0
KTA1 200519Z 18013KT 17/10 A2987 RMK A01 T01690099  RH  063%=      5-min Rain = 0
KTA1 200520Z 18015KT 17/10 A2987 RMK A01 T01690099  RH  063%=      5-min Rain = 0
KTA1 200521Z 18013KT 17/10 A2987 RMK A01 T01690099  RH  063%=      5-min Rain = 0
KTA1 200522Z 18013KT 17/10 A2987 RMK A01 T01690099  RH  063%=      5-min Rain = 0
KTA1 200523Z 18014KT 17/10 A2987 RMK A01 T01690099  RH  063%=      5-min Rain = 0
KTA1 200524Z 18014KT 17/10 A2987 RMK A01 T01690099  RH  063%=      5-min Rain = 0
KTA1 200525Z 18011KT 17/10 A2987 RMK A01 T01690099  RH  063%=      5-min Rain = 0
KTA1 200526Z 18015KT 17/10 A2986 RMK A01 T01690100  RH  063%=      5-min Rain = 0
KTA1 200527Z 18014KT 17/10 A2986 RMK A01 T01690100  RH  063%=      5-min Rain = 0
KTA1 200528Z 19014KT 17/10 A2986 RMK A01 T01690100  RH  064%=      5-min Rain = 0
KTA1 200529Z 18013KT 17/10 A2986 RMK A01 T01700100  RH  064%=      5-min Rain = 0
KTA1 200530Z 18012KT 17/10 A2987 RMK A01 T01700100  RH  063%=      5-min Rain = 0
KTA1 200531Z 18013KT 17/10 A2987 RMK A01 T01690100  RH  064%=      5-min Rain = 0
KTA1 200532Z 18014KT 17/10 A2987 RMK A01 T01690100  RH  064%=      5-min Rain = 0
KTA1 200533Z 18013KT 17/10 A2987 RMK A01 T01690100  RH  064%=      5-min Rain = 0
KTA1 200534Z 18015KT 17/10 A2987 RMK A01 T01690100  RH  064%=      5-min Rain = 0
KTA1 200535Z 18011KT 17/10 A2987 RMK A01 T01690100  RH  064%=      5-min Rain = 0
KTA1 200536Z 18014KT 17/10 A2987 RMK A01 T01690101  RH  064%=      5-min Rain = 0
KTA1 200537Z 18014KT 17/10 A2986 RMK A01 T01690101  RH  064%=      5-min Rain = 0
KTA1 200538Z 18013KT 17/10 A2986 RMK A01 T01690100  RH  064%=      5-min Rain = 0
KTA1 200539Z 18013KT 17/10 A2986 RMK A01 T01690100  RH  064%=      5-min Rain = 0
KTA1 200540Z 18012KT 17/10 A2986 RMK A01 T01690100  RH  064%=      5-min Rain = 0
KTA1 200541Z 18015KT 17/10 A2986 RMK A01 T01690101  RH  064%=      5-min Rain = 0
KTA1 200542Z 18014KT 17/10 A2986 RMK A01 T01690101  RH  064%=      5-min Rain = 0
KTA1 200543Z 18011G19KT 17/10 A2986 RMK A01 T01690100  RH  064%=      5-min Rain = 0
KTA1 200544Z 18016KT 17/10 A2986 RMK A01 T01690101  RH  064%=      5-min Rain = 0
KTA1 200545Z 18016KT 17/10 A2986 RMK A01 T01690101  RH  064%=      5-min Rain = 0
KTA1 200546Z 18016KT 17/10 A2986 RMK A01 T01690101  RH  064%=      5-min Rain = 0
KTA1 200547Z 18015KT 17/10 A2986 RMK A01 T01710102  RH  064%=      5-min Rain = 0
KTA1 200548Z 18015KT 17/10 A2986 RMK A01 T01700102  RH  064%=      5-min Rain = 0
KTA1 200549Z 18015KT 17/10 A2986 RMK A01 T01700102  RH  064%=      5-min Rain = 0
KTA1 200550Z 18016KT 17/10 A2986 RMK A01 T01700102  RH  064%=      5-min Rain = 0
KTA1 200551Z 18013KT 17/10 A2987 RMK A01 T01710102  RH  064%=      5-min Rain = 0
KTA1 200552Z 18011KT 17/10 A2987 RMK A01 T01700102  RH  064%=      5-min Rain = 0
KTA1 200553Z 18013KT 17/10 A2987 RMK A01 T01700102  RH  064%=      5-min Rain = 0
KTA1 200554Z 18012KT 17/10 A2987 RMK A01 T01690102  RH  065%=      5-min Rain = 0
KTA1 200555Z 18013KT 17/10 A2987 RMK A01 T01680102  RH  065%=      5-min Rain = 0
KTA1 200556Z 18013KT 17/10 A2987 RMK A01 T01680102  RH  065%=      5-min Rain = 0
KTA1 200557Z 18012KT 17/10 A2987 RMK A01 T01680102  RH  065%=      5-min Rain = 0
KTA1 200558Z 18013KT 17/10 A2987 RMK A01 T01670102  RH  065%=      5-min Rain = 0
KTA1 200559Z 18013KT 17/10 A2987 RMK A01 T01670102  RH  065%=      5-min Rain = 0

Page generated in 0.0706 seconds.